前端开发工程师,从小白到就业价值3999元

本套课程前端开发工程师,从小白到就业适合新手,入门门槛低容易上手,官网售价3999元。
课程通过大量的企业岗位需求调研,结合前端大牛最佳技能成长线路构建了从零入门到就业的全栈能力更具又职业竞争力的前端工程师。
好的学习方法让你的学习事半功倍,学习结合,多写代码,勤于思考,不懂就问。
课程包括:阶段1:前端基础入门、阶段2:组件化与移动WebApp开发、阶段3:小程序与主流框架开发。
附送课程课程:
快速搞定前端技术一面匹配大厂面试要求价值299元
课程包括视频课件一共70.6G,课程目录和下载链接在文章底部。

前端工程师视频截图

课程融合了6大核心趋势帮你逐步的迈向成功的彼岸。
1、完备的知识体系,拓宽跨平台技能
2、从前端到服务端,帮你打通全栈开发能力
3、两大核心企业项目贯穿整个体系,实现项目闭环开发
4、还原企业真实开发业务场景,掌握企业项目迭代需求与流程
5、15+练手项目,学习过程即实战,帮你夯实基础
6、学练测评答一体化,为你的学习保驾护航。

课程收获:
◆使用HTML5和CSS3-比一还原真实网页开发
◆结合CSS3和JavaScript实现网页特效
◆掌握WEB端与移动端开发技巧
◆组件化开发思想编写企业级代码
◆掌握JavaScript第六代语言标准
◆掌握跨端适配技巧
◆同一项目逐步迭代
◆从PC端演化成移动WebApp
◆传统单- -模块开发到组件化开发
◆企业级代码+真实开发流程
◆收获一套前端上线作品
◆掌握多端开发技术
◆快速开发企业级项目,提升开发效率
◆掌握轻应用小程序开发技术

课程目录:前端工程师2020版【70.6G】
├赠送1:大前端-前端高级进阶
├课件
课件.rar
课件
课件
git
mint-2-master.zip
nuxt-demo-master.zip
toimc-api-master.zip
toimc-admin-master.zip
toimc-front-master.zip
toimc-wxapp-master.zip
toimc-webapp-master.zip
vue-mint-template-master.zip
vue-server-render-demo-master.zip
webpack4-img-html-example-master.zip
websocket-master.zip
大前端:前端全栈加强版!前端全栈微信全周期微信多端(升级Vue3.0)-就业班.pdf
qq群资料
交流
第一次正式交流会.pdf
优秀的总结分享
大前端学习第一周.pdf
资料
Docker 阿里云加速和 docker-compose 国内镜像.pdf
Kubernetes Learning Path version 1.0.pdf
vscode-gist.20190909.txt
课程VSCode中的配置Gist ID配置.pdf
├阶段1:开启大前端的大门
第2周 开发环境搭建
1-1 导读-就业班 2019-09-11 13_46_.mp4
1-3 【前端效率神器】Yarn & Nvm(nvm-windows)-就业班 2019-09-11 13_50_.mp4
1-4 选择题-就业班.pdf
1-2 搭建开发环境-简版(针对有基础小伙伴)-就业班 2019-09-11 13_47_.mp4
1-5 选择题-就业班.pdf
1-6 选择题-就业班.pdf
2-1 虚拟化软件 & Linux版本介绍-就业班 2019-09-11 13_52_.mp4
2-10 docker-compose&docker Hub使用-就业班 2019-09-11 14_22_.mp4
2-2 选择题-就业班.pdf
2-11 认识 node 及node版本管理工具nvm介绍-就业班 2019-09-11 14_24_.mp4
2-5 选择题-就业班.pdf
2-3 Linux内核&硬件资源&测试-就业班 2019-09-11 14_10_.mp4
2-8 选择题-就业班.pdf
2-4 Linux常见指令&命令-就业班 2019-09-11 14_11_.mp4
2-6 SSH密钥方式远程连接Linux–就业班 2019-09-11 14_13_.mp4
2-7 docker入门-就业班 2019-09-11 14_15_.mp4
3-1 IDE简介及外观比较-就业班 2019-09-11 14_27_.mp4
2-9 选择题-就业班.pdf
3-2 智能对比:代码提示、语法高亮、集成插件-就业班 2019-09-11 14_28_.mp4
3-4 常规设置:字体、Tab缩进空格、快捷键-就业班 2019-09-11 14_30_.mp4
3-5 调试介绍&IDE总结&小福利-就业班 2019-09-11 14_33_.mp4
3-3 插件系统对比-就业班 2019-09-11 14_29_.mp4
3-6 使用浏览器配合手机调试&使用Proxy劫持(3类真机调试技巧)-就业班 2019-09-11 14_36_.mp4
4-1 章导读-就业班 2019-09-11 14_38_.mp4
3-7 Weinre&spy debugger&vConsole(3类真机调试技巧)-就业班 2019-09-11 14_37_.mp4
4-2 RESTful API 简介-就业班 2019-09-11 14_39_.mp4
4-4 什么是Mock数据,有哪些Mock平台?-就业班 2019-09-11 14_44_.mp4
4-8 作业题-就业班.pdf
4-9 本章小结-就业班 2019-09-11 15_04_.mp4
4-3 4种常见接口测试工具介绍-就业班 2019-09-11 14_42_.mp4
5d5648348a430079c7446f60.zip
4-5 使用Docker搭建本地Mock服务&接口测试服务DOClever-就业班 2019-09-11 14_47_.mp4
4-7 Mock.js小而美的Mock数据神器-就业班 2019-09-11 14_49_.mp4
4-6 DOClever中Mock方式开发-就业班 2019-09-11 14_48_.mp4
第3周 前端工程化
1-1 导读(主流webpack,gulp,yeoman)-就业班 2019-09-11 15_06_.mp4
2-1 前端工程化简介-就业班 2019-09-11 15_13_.mp4
2-2 webpack五大核心概念-就业班 2019-09-11 15_15_.mp4
2-7 作业题-就业班.pdf
2-3 webpack两种安装方式及三种使用方式介绍-就业班 2019-09-11 15_17_.mp4
2-4 入口及输出-就业班 2019-09-11 15_20_.mp4
2-8 mode模式设置-就业班 2019-09-11 15_32_.mp4
2-5 loaders、plugins、HMR-1-就业班 2019-09-11 15_23_.mp4
3-1 自动化工具gulp,热刷新、编译css、压缩js-就业班 2019-09-11 15_36_.mp4
2-6 loaders、plugins、HMR-2-就业班 2019-09-11 15_26_.mp4
2-9 babel配置,JS&CSS压缩-就业班 2019-09-11 15_34_.mp4
3-4 开发热编译、浏览器自动刷新-就业班 2019-09-11 15_40_.mp4
3-2 GulpFlow与插件介绍-就业班 2019-09-11 15_37_.mp4
5d564d59386cf24b41d13b56.zip
4-1 Yoeman入门(快速形成工程化项目)-就业班 2019-09-11 15_42_.mp4
4-3 npm发布脚手架,快速使用脚手架-就业班 2019-09-11 15_44_.mp4
4-2 generator,编写自己的脚手架工程-就业班 2019-09-11 15_42_.mp4
3-3 安装依赖、配置gulp任务-就业班 2019-09-11 15_38_.mp4
第4周 vue 框架知识
2-1 MVVM框架简介,JS框架选型,Vue框架特点-就业班 2019-09-11 15_50_.mp4
2-3 选择题-就业班.pdf
1-1 导读(Vue基础知识体系)-就业班 2019-09-11 15_49_.mp4
2-6 选择题-就业班.pdf
2-7 选择题-就业班.pdf
2-5 Vue-Cli工程项目中的Webpack配置-就业班 2019-09-11 15_53_.mp4
2-2 Vue-cli入门(Vue项目标准化工具)-就业班 2019-09-11 15_50_.mp4
2-4 Vue-ui 简介-就业班 2019-09-11 15_52_.mp4
3-10 选择题-就业班.pdf
3-2 选择题-就业班.pdf
2-8 初识Vue工程目录-就业班 2019-09-11 15_54_.mp4
3-4 选择题-就业班.pdf
3-1 Vue工程两种调试方法介绍-就业班 2019-09-11 15_56_.mp4
3-5 组件化带来的问题-就业班 2019-09-11 16_02_.mp4
3-7 选择题-就业班.pdf
3-11 路由,vuex状态管理(组件传参),Computed计算属性-2-就业班 2019-09-11 16_17_.mp4
3-9 选择题-就业班.pdf
3-3 什么是组件化思想-就业班 2019-09-11 15_59_.mp4
3-8 router路由,vuex状态管理(组件传参),computed计算属性-就业班 2019-09-11 16_10_.mp4
3-6 模板语法、条件渲染、列表渲染-就业班 2019-09-11 16_03_.mp4
第1周 初识大前端
第1章 课程介绍
1-2 课程介绍&项目展示&技术架构-就业班 2019-08-22 20_35_.mp4
1-3 如何学习本课程-就业班 2019-08-22 20_47_.mp4
1-4 寻求帮助&课程资源&课程更新-就业班 2019-08-22 20_49_.mp4
1-5 适用人群介绍-就业班 2019-08-22 20_50_.mp4
1-1 前端行业机遇与挑战(开启无限可能)-就业班 2019-08-22 18_12_.mp4
第2章 前端全栈痛点全解析
2-1 章导读-就业班 2019-08-22 20_54.mp4
2-10 编程练习(自由编程).png
2-2 工作中的痛点问题-就业班 2019-08-22 20_56.mp4
2-3 解决方案&DevOps流程-就业班 2019-08-22 20_58.mp4
2-4 预防错误的心态,快速提升-就业班 2019-08-22 21_05.mp4
2-5 如何选择练手项目-就业班 2019-08-22 21_07.mp4
2-6 前端面试中的坑-就业班 2019-08-22 21_07.mp4
2-7 如何选择公司-就业班 2019-08-22 21_11.mp4
2-9 本章小结-就业班 2019-08-22 21_13.mp4
2-8 做好自我提升规划-就业班 2019-08-22 21_12.mp4
第3章 项目需求分析(变身需求分析达人,从了解需求分析的点滴开始)
3-10 Axure进阶使用(原型图神器)-就业班 2019-08-22 21_42.mp4
3-1 章导读-就业班 2019-08-22 21_14.mp4
3-11 墨刀原型图设计工具基础使用(协同原型图工具)-就业班 2019-08-22 21_43.mp4
3-12 XMind使用介绍-就业班 2019-08-22 21_44.mp4
3-13 ProcessOn在线流程图编辑工具-就业班 2019-08-22 21_44.mp4
3-3 项目需求变更-就业班 2019-08-22 21_25.mp4
3-2 需求分析难点和痛点全解析-就业班 2019-08-22 21_14.mp4
3-4 核心业务需求分析-就业班 2019-08-22 21_25.mp4
3-7 技术栈考量(需求分析中的重要环节)-就业班 2019-08-22 21_33.mp4
3-5 PC端需求分析-就业班 2019-08-22 21_27.mp4
3-6 服务端&小程序需求分析-就业班 2019-08-22 21_29.mp4
3-8 需求分析工具概览(3类需求分析工具)-就业班 2019-08-22 21_35.mp4
3-9 Axure基本功能介绍(原型图神器)-就业班 2019-08-22 21_36.mp4
├阶段2:抓住团队协作的密码
第5周 前端框架分类及选型
1-1 Web框架koa简介-就业班 2019-09-11 16_26_.mp4
1-10 优化Webpack配置,npm构建脚本【实战篇】-就业班 2019-09-11 16_48_.mp4
1-4 Koa中的Async&Await【原理篇】-就业班 2019-09-11 16_38_.mp4
1-2 第一个Koa应用-就业班 2019-09-11 16_36_.mp4
1-3 Request属性、路由基础用法、app.use链式处理【原理篇】-就业班 2019-09-11 16_37_.mp4
1-11 koa应用打包优化koa-compose&koa-compress 【实战篇】-就业班 2019-09-11 17_06_.mp4
1-6 作业题-就业班.pdf
1-9 如何调试Webpack?如何配置VSCode调试?【调试篇】-就业班 2019-09-11 16_47_.mp4
1-7 工作目录介绍、合并路由、静态资源服务【进阶篇】-就业班 2019-09-11 16_44_.mp4
1-5 Koa开发RESTful接口,GET&POST获取数据及数据格式化方法【进阶篇】-就业班 2019-09-11 16_39_.mp4
2-1 前端框架章导学-就业班 2019-09-11 17_07_.mp4
1-8 koa开发热加载、ES6语法支持【进阶篇】-就业班 2019-09-11 16_46_.mp4
2-4 自由编程-就业班.pdf
2-2 框架&库-就业班 2019-09-11 17_11_.mp4
3-1 章导学-就业班 2019-09-11 17_19_.mp4
2-5 JS框架选型(3款MVVM框架的对比)-就业班 2019-09-11 17_15_.mp4
3-12 作业题-就业班.pdf
2-3 UI框架选型-就业班 2019-09-11 17_13_.mp4
3-10 完成登录、注册、找回密码页面样式及路由懒加载(2)-就业班 2019-09-11 17_36_.mp4
3-11 完成登录注册页输入校验及图形验证码-就业班 2019-09-11 17_38_.mp4
3-3 图形验证码功能开发1-就业班 2019-09-11 17_23_.mp4
3-14 完成邮件服务接口与找回密码对接(Nodejs进阶)-就业班 2019-09-11 17_44_.mp4
3-2 UI框架快速完成登录业务的样式开发(学会用轮子)-就业班 2019-09-11 17_20_.mp4
3-13 配置邮件服务NodeMailer(Nodejs进阶)-就业班 2019-09-11 17_41_.mp4
3-4 图形验证码功能开发2-就业班 2019-09-11 17_25_.mp4
3-5 基本的验证方法(表单验证)-就业班 2019-09-11 17_26_.mp4
3-8 作业题-就业班.pdf
5d5e70c700018ce502850057.jpg
登录模块(资料与代码).rar
3-6 Vuelidate的安装及使用(表单验证进阶)-就业班 2019-09-11 17_26_.mp4
3-7 VeeValidate的安装及使用(表单验证进阶)-就业班 2019-09-11 17_33_.mp4
3-9 完成登录、注册、找回密码页面样式及路由懒加载(1)-就业班 2019-09-11 17_34_.mp4
第6周 团队协作-文档与版本管理
1-1 章导读(敏捷流程之文档管理宝鉴)-就业班 2019-09-11 17_59_.mp4
1-11 heox微信github pages自建博客(Markdown的另类玩法)-就业班 2019-09-11 18_25_.mp4
1-10 云笔记&个人笔记使用指北(勤练习才能写好文档)-就业班 2019-09-11 18_23_.mp4
1-12 章小结(文档管理工具按需取用)-就业班 2019-09-11 18_26_.mp4
1-2 Markdown简介-就业班 2019-09-11 18_08_.mp4
1-3 Typora一款跨端的Markdown实时编辑预览编辑器-就业班 2019-09-11 18_09_.mp4
1-6 自由编程-就业班.pdf
1-5 Typora主题及Markdown输出样式自定义-就业班 2019-09-11 18_15_.mp4
1-9 ShowDoc工作流及配置-就业班 2019-09-11 18_22_.mp4
1-7 4 款文档管理工具介绍(思想决定视野,工具提升效率)-就业班 2019-09-11 18_18_.mp4
2-10 情境二:推送代码到多个仓库(版本控制工具git)-就业班 2019-09-11 18_38_.mp4
1-4 Markdown常用语法-就业班 2019-09-11 18_10_.mp4
1-8 ShowDoc的本地化安装-就业班 2019-09-11 18_21_.mp4
2-12 选择题-就业班.pdf
2-1 章导学(敏捷流程之版本控制宝鉴)–就业班 2019-09-11 18_27_.mp4
2-11 github仓库settings介绍(版本控制工具git)-就业班 2019-09-11 18_41_.mp4
2-14 选择题-就业班.pdf
2-16 选择题-就业班.pdf
2-17 选择题-就业班.pdf
2-19 选择题-就业班.pdf
2-15 两种应用场景下的git flow模型(多人协作git flow工作流)-就业班 2019-09-11 18_46_.mp4
2-2 语义化版本Semantic Versioning(版本控制基础)-就业班 2019-09-11 18_28_.mp4
2-21 选择题-就业班.pdf
2-20 实操git flow&常见问题(多人协作之分支管理)-就业班 2019-09-11 18_54_.mp4
2-18 分支管理的基础命令介绍(多人协作之分支管理)-就业班 2019-09-11 18_47_.mp4
2-13 深入理解git工作原理——快照管理(版本控制工具git)-就业班 2019-09-11 18_42_.mp4
2-23 docker-compose搭建gitlab平台(自动动手)-就业班 2019-09-11 18_57_.mp4
2-24 docker-compose运维gitlab平台:备份&恢复(自动动手)-就业班 2019-09-11 18_58_.mp4
2-22 docker run搭建gitlab平台-就业班 2019-09-11 18_56_.mp4
2-26 三种方法产生.gitignore文件(git必备知识)-就业班 2019-09-11 19_01_.mp4
2-27 Git的GUI工具使用简介-就业班 2019-09-11 19_02_.mp4
2-25 gitlab的权限介绍&组权限控制&分支保护-就业班 2019-09-11 19_00_.mp4
2-28 【温故知新】章总结-就业班 2019-09-11 19_09_.mp4
2-5 选择题-就业班.pdf
2-6 选择题-就业班.pdf
2-3 选择题-就业班.pdf
222(资料与代码).rar
2-8 选择题-就业班.pdf
gitsubmodule.pdf
gitlab配置HTTPS与邮件服务.pdf
开源许可协议.pdf
Typora中Table进阶使用.pdf
软件获取方式.pdf
使用gitsubtree管理项目中的子库.pdf
学习Markdown语法.pdf
2-9 情景一:空仓库&创建仓库提交代码(版本控制工具git)-就业班 2019-09-11 18_35_.mp4
2-4 git工具导学&git vs svn&git多密钥管理-就业班 2019-09-11 18_29_.mp4
2-7 从零配置github到SSH秘钥克隆仓库(版本控制工具git)-就业班 2019-09-11 18_33_.mp4
第7周 团队协作-缺陷控制与自动化流程
1-2 选择题-就业班.pdf
1-4 选择题-就业班.pdf
1-5 选择题-就业班.pdf
1-7 选择题-就业班.pdf
1-10 禅道&Jira&Redmine简介-就业班 2019-09-11 19_29_.mp4
1-3 缺陷控制概念-就业班 2019-09-11 19_22_.mp4
1-6 最佳实践-就业班 2019-09-11 19_23_.mp4
1-1 章导读-就业班 2019-09-11 19_18_.mp4
1-8 缺陷管理工具分类-就业班 2019-09-11 19_24_.mp4
2-2 选择题-就业班.pdf
2-4 选择题-就业班.pdf
2-5 选择题-就业班.pdf
1-9 Trello&Teambition使用介绍-就业班 2019-09-11 19_25_.mp4
2-3 ESLint规则&配置方法-就业班 2019-09-11 19_34_.mp4
2-1 ESLint安装&初始化-就业班 2019-09-11 19_32_.mp4
2-8 本章小结-就业班 2019-09-11 19_37_.mp4
2-7 Vue项目中使用VSCode插件自动格式化微信自动ESLint代码-就业班 2019-09-11 19_36_.mp4
2-6 ESLint与VSCode&Webstorm结合使用-就业班 2019-09-11 19_35_.mp4
├阶段3:打通全栈开发技能
第10周 全栈开发—首页模块
1-1 章导读(教学内容、目标、建议)-就业班 2019-12-27 18_51_.mp4
1-2 功能拆解&原型设计说明-就业班 2019-12-27 18_52_.mp4
2-1 数据库-业务功能分析-就业班 2019-12-27 18_53_.mp4
2-2 数据库设计-用户信息-就业班 2019-12-27 18_55_.mp4
2-3 数据库设计-发贴、签到、友链-就业班 2019-12-27 18_56_.mp4
3-1 接口设计&组件拆分-就业班 2019-12-27 18_58_.mp4
3-3 首页接口定义-侧栏接口定义-就业班 2019-12-27 19_03_.mp4
3-3 首页接口定义-侧栏接口定义-就业班 2019-12-27 19_03 (1).mp4 4-1 git仓库初始-就业班 2019-12-27 19_03.mp4
4-2 vue-cli升级到v4版本-就业班 2019-12-27 19_04_.mp4
3-2 首页接口定义-文章列表-就业班 2019-12-27 19_02_.mp4
4-4 完成首页静态页面结构-就业班 2019-12-27 19_05_.mp4
4-5 优化温馨通道样式-就业班 2019-12-27 19_06_.mp4
4-3 初始识响应式原理-就业班 2019-12-27 19_04_.mp4
5-1 首页交互及接口分析&最终效果展示-就业班 2019-12-27 19_11_.mp4
5-2 首页Panel部分路由交互-就业班 2019-12-27 19_12_.mp4
5-4 首页列表筛选部分交互逻辑-就业班 2019-12-27 19_15_.mp4
5df98ba079fe5fe635d5b10c.zip
5-3 前台首页接口开发-就业班 2019-12-27 19_13_.mp4
5-5 拆分首页ListItem组件1-就业班 2019-12-27 19_15_.mp4
6-3 首页列表监听筛选数据-就业班 2019-12-27 19_18_.mp4
6-1 长列表加载注意的三个基本面-就业班 2019-12-27 19_16_.mp4
5-6 拆分首页ListItem组件2-就业班 2019-12-27 19_16_.mp4
6-2 axios拦截器取消用户重复请求-就业班 2019-12-27 19_17_.mp4
6-5 首页侧边栏:温馨通道、友链接口开发-就业班 2019-12-27 19_19_.mp4
课程资源(资源代码和UI).rar
社区开发功能思维导图.png
6-6 作业题-就业班.pdf
6-4 首页路由监听加载分类数据-就业班 2019-12-27 19_18_.mp4
第11周 全栈开发—用户中心和发贴回帖模块
1-10 Sass进阶1@for,@Mixin,Map用法介绍-0k-就业班 2019-12-27 20_22_.mp4
1-2 首页个人中心菜单交互-就业班 2019-12-27 20_12_.mp4
1-1 优化用户登录路由-就业班 2019-12-27 20_09_.mp4
1-11 Sass进阶2@each,Map相关操作,学会书写通用工具类Mixin-就业班 2019-12-27 20_23_.mp4
1-3 使用iconfont制作自定义图标-就业班 2019-12-27 20_14_.mp4
1-4 使用最新的Layui版本-就业班 2019-12-27 20_15_.mp4
1-9 完成消息&其他设置页面静态样式(CSS基础)-就业班 2019-12-27 20_22_.mp4
1-8 完成我的帖子子组件静态样式(CSS基础)-就业班 2019-12-27 20_21_.mp4
1-6 完成用户中心欢迎页静态样式书写(CSS基础)-就业班 2019-12-27 20_16_.mp4
1-5 创建个人内容子组件-就业班 2019-12-27 20_15_.mp4
1-7 完成个人中心基本设置(CSS基础)-就业班 2019-12-27 20_18_.mp4
2-1 用户信息如何缓存?localStorage&SessionStorage的区别-就业班 2019-12-27 20_24_.mp4
2-2 登录路由优化(全局路由守卫)-就业班 2019-12-27 20_26_.mp4
2-3 登录安全机制优化(jwt过期后处理逻辑)-就业班 2019-12-27 20_27_.mp4
3-12 完善签到组件-就业班 2019-12-27 20_42_.mp4
3-10 签到组件前端交互-就业班 2019-12-27 20_40_.mp4
3-1 用户签到说明模态框(CSS基础)-就业班 2019-12-27 20_28_.mp4
3-2 签到榜列表(CSS基础)-就业班 2019-12-27 20_29_.mp4
3-11 自定义Pop气泡组件-就业班 2019-12-27 20_41_.mp4
3-4 签到榜的组件拆分&子组件事件传递-就业班 2019-12-27 20_30_.mp4
3-3 签到榜标签切换-就业班 2019-12-27 20_30_.mp4
3-7 签到接口开发2-就业班 2019-12-27 20_33_.mp4
3-5 用户签到逻辑介绍-就业班 2019-12-27 20_31_.mp4
3-9 签到接口完成测试&接口开发小结-就业班 2019-12-27 20_40_.mp4
3-6 签到接口开发1-就业班 2019-12-27 20_31_.mp4
4-1 异常路由处理,添加404页面-就业班 2019-12-27 20_42_.mp4
4-10 完成用户中心修改个人信息-就业班 2020-02-05 14_34_.mp4
3-8 签到接口3种调试方法:功能测试、单步调试、临界条件测试-就业班 2019-12-27 20_34_.mp4
4-11 上传头像前端页面开发-就业班 2020-02-05 14_35_.mp4
4-12 图片上传接口路由&文件解析配置-就业班 2020-02-05 14_35_.mp4
4-2 input标签radio样式自定义-就业班 2019-12-27 20_43_.mp4
4-15 修改密码功能-就业班 2020-02-05 14_38_.mp4
4-13 自定义路径工具类&make-dir 库使用-就业班 2020-02-05 14_36_.mp4
4-14 上传头像接口联调-就业班 2020-02-05 14_37_.mp4
4-3 基本设置修改用户资料接口-就业班 2019-12-27 20_43_.mp4
4-4 后端Routes入口优化require.context-就业班 2019-12-27 20_45_.mp4
4-5 基本信息修改接口开发-就业班 2019-12-27 20_45_.mp4
4-7 调试账号修改路由&自定义邮件内容-就业班 2019-12-27 20_46_.mp4
4-6 调试账号修改接口&邮件发送服务-就业班 2019-12-27 20_46_.mp4
4-8 开发确认邮件跳转的前端页面-就业班 2019-12-27 20_47_.mp4
4-9 代码作业-忘记密码页面&接口-就业班 2020-02-05 14_34_.mp4
5-1 node版本升级至12.14.0-就业班 2020-02-05 14_39_.mp4
5-14 dayjs使用扩展插件(国际化、取时间差)-就业班 2020-02-05 15_10_.mp4
5-2 发贴页面需求分析-就业班 2020-02-05 14_39_.mp4
5-10 完成编辑器预览之表情、链接、引用处理-就业班 2020-02-05 15_07_.mp4
5-4 使用mixin混入优化图片验证码功能-就业班 2020-02-05 14_41_.mp4
5-3 完成发贴页面样式&自定义select交互-就业班 2020-02-05 14_40_.mp4
5-11 发贴请求表单检验-就业班 2020-02-05 15_08_.mp4
5-13 发贴后端接口开发&前后端联调-就业班 2020-02-05 15_09_.mp4
5-5 自定义表情&transition过渡、父子通信-就业班 2020-02-05 14_42_.mp4
5-8 优化编辑器组件间事件传递-就业班 2020-02-05 14_47_.mp4
5-7 编辑器添加链接功能(作业:自行完成引用、代码块插入样式)-就业班 2020-02-05 14_44_.mp4
5-9 指定光标位置插入自定义内容格式-就业班 2020-02-05 14_48_.mp4
6-1 帖子详情页面需求分析-就业班 2020-02-05 15_11_.mp4
5-6 编辑器图片上传功能-就业班 2020-02-05 14_42_.mp4
6-3 完成帖子详情样式-就业班 2020-02-05 15_12_.mp4
6-5 分页组件添加统计页数&分页限制选项-就业班 2020-02-05 15_14_.mp4
6-4 自定义分页组件-就业班 2020-02-05 15_13_.mp4
6-2 帖子详情数据库及接口定义-就业班 2020-02-05 15_11_.mp4
6-6 分页组件逻辑分析&lodash进阶使用-就业班 2020-02-05 15_15_.mp4
6-7 控制按钮样式与列表index绑定-就业班 2020-02-05 15_16_.mp4
7-1 Mock数据调试前端评论列表样式-就业班 2020-02-05 15_18_.mp4
6-8 完成分页组件&调试页面点击事件-就业班 2020-02-05 15_16_.mp4
7-10 评论点赞&回复特定的用户-就业班 2020-02-05 15_28_.mp4
6-9 文章详情前端页面调试-就业班 2020-02-05 15_17_.mp4
7-2 文章详情后台接口开发&前后端调试-就业班 2020-02-05 15_18_.mp4
7-5 新增richtext自定义指令&完善翻页组件(小作业)-就业班 2020-02-05 15_22_.mp4
7-3 评论列表接口开发-就业班 2020-02-05 15_19_.mp4
7-4 新增评论接口开发-就业班 2020-02-05 15_21_.mp4
7-7 评论编辑接口开发-就业班 2020-02-05 15_24_.mp4
7-6 评论编辑交互开发&自定义滚动-就业班 2020-02-05 15_23_.mp4
7-9 评论点赞前后端联调-就业班 2020-02-05 15_26_.mp4
7-8 评论采纳功能开发-就业班 2020-02-05 15_25_.mp4
8-1 阅读记数&评论记数功能-就业班 2020-02-05 15_30_.mp4
9-2 个人中心-收藏帖子列表-就业班 2020-02-05 15_37_.mp4
8-2 开发编辑帖子功能-就业班 2020-02-05 15_30_.mp4
8-4 设置收藏&取消收藏功能开发-就业班 2020-02-05 15_33_.mp4
8-3 文章详情&评论点赞联调(完成发贴业务)-就业班 2020-02-05 15_32_.mp4
9-3 个人中心-获取用户的基本信息-就业班 2020-02-05 15_37_.mp4
9-1 个人中心-发贴记录功能开发-就业班 2020-02-05 15_34_.mp4
第12周 消息中间件开发(WebSocket通信)
1-1 websocket章导学-就业班 2020-02-09 17_31_.mp4
1-3 第一个WebSocket应用-就业班 2020-02-09 17_33_.mp4
1-2 Websocket基础-就业班 2020-02-09 22_03_.mp4
1-4 常见API介绍&第一个ws应用-就业班 2020-02-09 17_34_.mp4
1-6 WebSocket属性onerror&onclose-就业班 2020-02-09 17_35_.mp4
1-5 socket.io开发简单的消息应用-就业班 2020-02-09 17_35_.mp4
2-1 ws实现聊天功能(消息广播)-就业班 2020-02-09 17_36_.mp4
2-2 进入聊天室欢迎语功能-就业班 2020-02-09 17_37_.mp4
2-4 多聊天室-就业班 2020-02-09 17_39_.mp4
2-3 统计在线人数&离开聊天室发送通知-就业班 2020-02-09 17_37_.mp4
3-1 WebSocket鉴权方式-就业班 2020-02-09 17_40_.mp4
3-4 离线消息缓存开发准备-就业班 2020-02-09 17_43_.mp4
3-3 心跳检测&断线重连联调-就业班 2020-02-09 17_42_.mp4
3-5 消息缓存流程图&数据结构设计-就业班 2020-02-09 17_43_.mp4
3-2 心跳检测&断线重连-就业班 2020-02-09 17_41_.mp4
4-3 后端消息查询方法二:扩展Comments评论信息-就业班 2020-02-09 22_10_.mp4
3-7 离线消息缓存-消息缓存-就业班 2020-02-09 17_45_.mp4
4-1 个人中心-我的消息功能分析&样式开发-就业班 2020-02-09 22_06_.mp4
3-8 离线消息缓存联调-就业班 2020-02-09 17_45_.mp4
4-2 后端消息查询方法一:MongoDB联合查询(困难)-就业班 2020-02-09 23_16_.mp4
4-4 实时消息开发-后端WebSocket封装-就业班 2020-02-09 22_11_.mp4
4-5 实时消息开发-前端websocket封装-就业班 2020-02-09 22_14_.mp4
4-9 小结-就业班 2020-02-09 23_42_.mp4
4-8 实时消息开发-断线重连-就业班 2020-02-09 22_40_.mp4
4-7 作业-清空全部消息功能开发-就业班 2020-02-09 22_23_.mp4
4-6 实时消息开发-前后端联调-就业班 2020-02-09 22_20_.mp4
第13周 性能优化–服务端渲染
1-1 导学-就业班 2020-06-11 15_57_.mp4
2-1 SSR基础及工作原理-就业班 2020-06-11 15_58_.mp4
2-2 SSR学习路径-就业班 2020-06-11 15_59 (1).mp4 2-2 SSR学习路径-就业班 2020-06-11 15_59 (2).mp4
2-5 配置SSR webpack热重载流程分析-就业班 2020-06-11 16_05_.mp4
2-3 SSR的webpack打包配置-就业班 2020-06-11 15_59_.mp4
2-4 第一个SSR应用-就业班 2020-06-11 16_05_.mp4
2-2 SSR学习路径-就业班 2020-06-11 15_59_.mp4
2-7 调试webpack热重载-就业班 2020-06-11 16_10_.mp4
2-6 配置学习webpack-dev-middleware&webpack-hot-middleware-就业班 2020-06-11 16_08_.mp4
3-1 Nuxtjs 简介-就业班 2020-06-11 16_12_.mp4
2-8 路由和代码分割-就业班 2020-06-11 16_11_.mp4
3-3 Nuxtjs异步数据-就业班 2020-06-11 16_13_.mp4
3-4 Universal Mode-就业班 2020-06-11 16_37_.mp4
3-2 工程目录&自动生成路由-就业班 2020-06-11 16_13_.mp4
3-5 登录鉴权之nuxtjs auth模块-就业班 2020-06-11 16_17_.mp4
4-1 首页项目初始化&完成头部底部样式-就业班 2020-06-11 16_25_.mp4
4-2 完成首页服务端渲染及调试-就业班 2020-06-11 16_27_.mp4
第8周 NoSQL数据库的设计与集成
1-1 章导读-就业班 2019-10-17 12_00_.mp4
2-1 MongoDB初始化配置-就业班 2019-10-17 12_52_.mp4
1-2 NoSQL数据库&设计原则-就业班 2019-10-17 12_12_.mp4
2-2 介绍GUI工具-就业班 2019-10-17 12_54_.mp4
2-4 Mongoose使用简介-就业班 2019-10-17 12_58_.mp4
3-1 章导读-就业班 2019-10-17 13_00_.mp4
3-12.pdf
2-3 MongoDB备份与恢复-就业班 2019-10-17 12_58_.mp4
3-10.pdf
3-13.pdf
3-5 答案.pdf
3-5.pdf
2-5 Mongoose实战配置&CURD操作-就业班 2019-10-17 12_59_.mp4
3-2 Redis简介-就业班 2019-10-17 13_01_.mp4
3-7.pdf
3-8.pdf
3-11 Redis常见CLI命令3—服务相关&备份恢复-就业班 2019-10-17 13_09_.mp4
3-4 Redis安装-就业班 2019-10-17 13_04_.mp4
3-6 Redis常见CLI命令1—取值-就业班 2019-10-17 13_06_.mp4
3-9 Redis常见CLI命令2—发布订阅-就业班 2019-10-17 13_08_.mp4
MongDBresource(资料和代码).rar
软件获取方式 (1).pdf
Redisresources(资料和代码).rar
4-1 Redis的GUI工具-就业班 2019-10-17 13_10_.mp4
4-2 Redis实战应用配置—get&set方法-就业班 2019-10-17 13_12_.mp4
4-3 Redis实战应用配置—哈希表hset&hgetall-就业班 2019-10-17 13_18_.mp4
第9周 JWT登录鉴权—通用登录模块后端开发
1-1 章导学-就业班 2019-10-17 12_15_.mp4
1-2 登录鉴权核心概念-就业班 2019-10-17 12_16_.mp4
2-1 登录鉴权开发前置回顾-就业班 2019-10-17 12_19_.mp4
1-4 API接口安全相关知识(加密&算法&HTTPS)-就业班 2019-10-17 12_18_.mp4
1-3 JWT的工作原理-就业班 2019-10-17 12_17_.mp4
2-3 Veevalidate3X升级-本地化&配置自定义消息-就业班 2019-10-17 12_24_.mp4
2-2 前端项目Veevalidate3X-就业班 2019-10-17 12_22_.mp4
2-4 Veevalidate结合vuei18n-就业班 2019-10-17 12_26_.mp4
2-9.pdf
2-5 封装Axios请求(拦截器)-就业班 2019-10-17 12_27_.mp4
2-6 axios封装进阶-业务示例、逻辑代码、配置-就业班 2019-10-17 12_32_.mp4
2-8 前台veevalidate登录校验&接口请求设计-就业班 2019-10-17 13_32_.mp4
3-1 JWT鉴权方式:koa-jwt集成-就业班 2019-10-17 13_37_.mp4
3-4 VSCode对配置alias的支持-就业班 2019-10-17 13_51_.mp4
2-7 图片验证码存储&校验机制设计-就业班 2019-10-17 13_27_.mp4
3-2 服务端登录逻辑&业务代码调试-就业班 2019-10-17 13_42_.mp4
3-3 服务端koa统一错误处理-就业班 2019-10-17 13_45_.mp4
4-1 前端数据校验及交互设计的两种方法-就业班 2019-10-17 13_52_.mp4
3-5 使用Chrome调试服务端应用-就业班 2019-10-17 13_51_.mp4
3-6 登录功能小结&联调测试-就业班 2019-10-17 13_52_.mp4
4-4 前端数据校验交互一:自定义弹窗-就业班 2019-10-17 13_57_.mp4
4-3 Vue自定义Confirm组件-就业班 2019-10-17 13_56_.mp4
4-2 Vue自定义Alert组件-就业班 2019-10-17 13_53_.mp4
4-5 前端数据校验交互二:veevalidate服务端检验-就业班 2019-10-17 13_58_.mp4
5-2 注册接口Mod数据-就业班 2019-11-16 21_56_.mp4
5-1 前端注册业务开发-就业班 2019-11-16 21_51_.mp4
课程资源(代码和资料).rar
5-3 注册接口开发&前后联调-就业班 2019-11-16 22_02_.mp4
5-4 登录鉴权总结-就业班 2019-11-16 22_18_.mp4
├阶段4:前后端分离的后台管理系统
第14周 组件化思想进阶:iview上手文章管理
1-1 后台管理全局思考-就业班 2020-06-11 16_39_.mp4
1-2 课程导读(必看)-就业班 2020-06-11 16_40_.mp4
2-3 工程目录-就业班 2020-06-11 16_49_.mp4
2-1 项目依赖升级:Prettier&lint-stage配置-就业班 2020-06-11 16_42_.mp4
2-2 升级iview4.x版本&配置sass-loader-就业班 2020-06-11 16_47_.mp4
2-4 修改登录表单,添加图片验证码样式-就业班 2020-06-11 16_50_.mp4
2-5 iview-admin整体代码逻辑分析&图片验证码接口对接-就业班 2020-06-11 16_52_.mp4
2-6 vuex中modules用法介绍-就业班 2020-06-11 16_54_.mp4
2-8 登录Form组件数据校验-就业班 2020-06-11 16_58_.mp4
2-9 用户登录状态保存(js-cookie)-就业班 2020-06-11 17_04_.mp4
2-7 完成登录功能接口联调&登录组件改造-就业班 2020-06-11 16_56_.mp4
3-10 标签管理页面开发(代码作业)-就业班 2020-06-11 17_17_.mp4
3-1 创建自定义路由-就业班 2020-06-11 17_05_.mp4
3-2 路由多语言逻辑分析&i18n多语言插件-就业班 2020-06-11 17_08_.mp4
3-3 自定义内容管理页面基础样式-就业班 2020-06-11 17_09_.mp4
3-4 两种格式化表格数据的方法(推荐render动态渲染)-就业班 2020-06-11 17_10_.mp4
3-5 集成Page分页组件-就业班 2020-06-11 17_11_.mp4
3-6 自定义表格组件操作功能-就业班 2020-06-11 17_19_.mp4
3-7 删除指定文章功能开发&接口联调-就业班 2020-06-11 17_13_.mp4
3-8 文章管理编辑模态框-就业班 2020-06-11 17_15_.mp4
3-9 文章管理编辑功能开发&接口联调-就业班 2020-06-11 17_16_.mp4
第15周 中后台权限系统:前端权限设计方案
2-1 权限基础(什么是菜单权限、数据权限)-就业班 2020-06-11 17_34_.mp4
1-1 导学-就业班 2020-06-11 17_33_.mp4
2-4 角色权限控制基础-就业班 2020-06-11 17_37_.mp4
2-3 页面权限举例:操作权限控制-就业班 2020-06-11 17_36_.mp4
2-2 页面权限举例:基于角色的权限控制-就业班 2020-06-11 17_35_.mp4
3-10 自定义搜索组件样式-就业班 2020-06-11 17_57_.mp4
3-13 自定义搜索组件接口开发-就业班 2020-06-11 18_01_.mp4
3-1 用户管理页面样式开发-添加Tables行批量选择功能-就业班 2020-06-11 17_38_.mp4
3-11 自定义搜索组件动态选项交互-就业班 2020-06-11 17_58_.mp4
3-12 自定义搜索组件交互调试-就业班 2020-06-11 17_59_.mp4
3-2 开发用户管理接口(获取用户列表)-就业班 2020-06-11 17_39_.mp4
3-3 用户基本信息编辑功能-就业班 2020-06-11 17_40_.mp4
3-4 修改用户信息&删除用户模态框开发(form表单异步校验)-就业班 2020-06-11 17_41_.mp4
3-6 新增用户接口开发&联调-就业班 2020-06-11 17_43_.mp4
3-5 新增用户前台样式&交互开发-就业班 2020-06-11 17_56_.mp4
3-7 批量操作-批量删除用户(学习deleteMany方法)-就业班 2020-06-11 17_44_.mp4
3-9 批量操作-批量设置用户接口开发&联调–就业班 2020-06-11 17_46_.mp4
4-1 菜单权限设计基础-就业班 2020-06-11 18_02_.mp4
4-2 菜单&权限管理数据库设计-就业班 2020-06-11 18_02_.mp4
3-8 批量操作-批量设置用户前台样式&交互开发–就业班 2020-06-11 17_45_.mp4
4-3 菜单&权限管理页面设计思考-就业班 2020-06-11 18_03_.mp4
4-4 开发准备-删除无用页面-就业班 2020-06-11 18_03_.mp4
第16周 中后台权限系统:基于角色&菜单权限设计
1-1 创建菜单&权限管理页面路由-就业班 2020-06-11 18_07_.mp4
1-2 开发菜单管理页面样式(响应式布局设置)-就业班 2020-06-11 18_08_.mp4
1-3 菜单管理表单内容定制(vue中webpack链式配置:添加iview-loader)-就业班 2020-06-11 18_09_.mp4
2-1 添加菜单Dropdown交互-就业班 2020-06-11 18_11_.mp4
1-4 自定义资源选项(分析页面交互,添加功能按钮)-就业班 2020-06-11 18_10_.mp4
2-4 多级菜单树删除交互&操作互锁功能-就业班 2020-06-11 18_16_.mp4
2-3 多级菜单树编辑功能交互-就业班 2020-06-11 18_14_.mp4
2-2 多级菜单树添加兄弟节点、子节点交互-就业班 2020-06-11 18_12_.mp4
2-5 代码作业:菜单管理页面-组件拆分-就业班 2020-06-11 18_16_.mp4
4-2 菜单管理数据库操作机制(非常重要)-就业班 2020-06-11 18_23_.mp4
3-1 资源管理添加交互-就业班 2020-06-11 18_17_.mp4
3-2 资源管理数据保存与显示交互-就业班 2020-06-11 18_20_.mp4
4-1 Mongodb嵌套Model定义方法-定义菜单Menus-就业班 2020-06-11 18_22_.mp4
3-3 资源管理批量设置、删除(完成菜单管理页面级交互)-就业班 2020-06-11 18_21_.mp4
4-5 添加子菜单&更新菜单接口对接&联调-就业班 2020-06-11 18_44_.mp4
4-6 菜单管理删除菜单接口联调-就业班 2020-06-11 18_45_.mp4
5-1 角色权限页面样式开发–就业班 2020-06-11 18_46_.mp4
4-3 菜单管理接口(CURD操作)-就业班 2020-06-11 18_24_.mp4
4-4 获取&添加菜单接口对接(递归查询父节点)-就业班 2020-06-11 18_33_.mp4
5-2 角色权限页面交互分析&添加角色模态框–就业班 2020-06-11 18_48_.mp4
5-3 角色权限管理交互(添加角色、角色权限展示-就业班 2020-06-11 18_49_.mp4
5-5 角色权限操作互锁(非编辑状态判断)-就业班 2020-06-11 18_53_.mp4.baiduyun.downloading
5-4 角色与菜单权限&操作权限联动交互-就业班 2020-06-11 18_52_.mp4.baiduyun.downloading
5-6 设置角色菜单权限、操作权限页面交互-就业班 2020-06-11 18_53_.mp4.baiduyun.downloading
6-3 获取用户所有角色权限信息-就业班 2020-06-11 18_58_.mp4.baiduyun.downloading
5-7 角色权限接口开发&联调-就业班 2020-06-11 18_55_.mp4.baiduyun.downloading
6-1 用户管理页面(对接角色信息)-就业班 2020-06-11 18_56_.mp4.baiduyun.downloading
6-2 代码作业(评论管理)-就业班 2020-06-11 18_58_.mp4
6-4 完成动态菜单联调-就业班 2020-06-11 18_59_.mp4.baiduyun.downloading
6-5 如何配置超级管理员?(代码作业:菜单列表排序)-就业班 2020-06-11 19_00_.mp4.baiduyun.downloading
6-6 接口权限控制中间件开发(数据权限)-就业班 2020-06-11 19_26_.mp4.baiduyun.downloading
5-4 角色与菜单权限&操作权限联动交互-就业班 2020-06-11 18_52_.mp4
5-5 角色权限操作互锁(非编辑状态判断)-就业班 2020-06-11 18_53_.mp4
5-7 角色权限接口开发&联调-就业班 2020-06-11 18_55_.mp4
6-1 用户管理页面(对接角色信息)-就业班 2020-06-11 18_56_.mp4
5-6 设置角色菜单权限、操作权限页面交互-就业班 2020-06-11 18_53_.mp4
6-3 获取用户所有角色权限信息-就业班 2020-06-11 18_58_.mp4
6-5 如何配置超级管理员?(代码作业:菜单列表排序)-就业班 2020-06-11 19_00_.mp4
6-4 完成动态菜单联调-就业班 2020-06-11 18_59_.mp4
6-6 接口权限控制中间件开发(数据权限)-就业班 2020-06-11 19_26_.mp4
第17周 首页可视化图表与日志服务
1-2 Echarts基础&地图类型图表两种解决方案-就业班 2020-06-12 10_56_.mp4.baiduyun.downloading
2-1 首页顶部统计信息-新增用户统计-就业班 2020-06-12 10_58_.mp4.baiduyun.downloading
2-2 首页顶部统计-周数据统计-就业班 2020-06-12 10_59_.mp4.baiduyun.downloading
2-3 定制发帖统计功能(通用饼状组件)-就业班 2020-06-12 11_01_.mp4.baiduyun.downloading
2-4 近6月累计发帖统计(aggregate进阶)-就业班 2020-06-12 11_02_.mp4.baiduyun.downloading
2-5 近7日的统计数据(echarts进阶)-就业班 2020-06-12 11_03_.mp4.baiduyun.downloading
2-6 近7日的统计数据接口&联调-就业班 2020-06-12 11_04_.mp4.baiduyun.downloading
3-3 监控日志方法二:文件日志koa-log4j-就业班 2020-06-12 11_21_.mp4.baiduyun.downloading
3-4 错误日志收集koa中间件开发(持久化方案-数据库保存)-就业班 2020-06-12 11_11_.mp4.baiduyun.downloading
3-1 准备联调开发环境-就业班 2020-06-12 11_07_.mp4.baiduyun.downloading
2-7 数据预取和状态-就业班 2020-06-12 11_05_.mp4
3-7 错误日志筛选查询(表格filterRemote)-就业班 2020-06-12 11_26_.mp4.baiduyun.downloading
3-6 管理后台页面参数详情&批量删除功能-就业班 2020-06-12 11_24_.mp4.baiduyun.downloading
3-5 管理后台页面:table组件render进阶-就业班 2020-06-12 11_23_.mp4.baiduyun.downloading
4-1 联调项目部署介绍-就业班 2020-06-12 11_29_.mp4.baiduyun.downloading
4-4 项目部署准备(Dockerfile、生产环境mongo&redis)-就业班 2020-06-12 11_33_.mp4.baiduyun.downloading
4-2 社区应用毅后端联调(配置接口权限、优化登录细节)-就业班 2020-06-12 11_30_.mp4.baiduyun.downloading
4-6 自动化部署前后台项目-就业班 2020-06-12 11_41_.mp4.baiduyun.downloading
4-3 自动化流程回顾微信Jenkins节点管理-就业班 2020-06-12 11_31_.mp4.baiduyun.downloading
课程资料.zip.baiduyun.downloading
4-5 接口项目配置自动化任务(敏感信息、微信通知)-就业班 2020-06-12 11_34_.mp4.baiduyun.downloading
1-1 章导学-就业班 2020-06-12 10_55_.mp4
1-2 Echarts基础&地图类型图表两种解决方案-就业班 2020-06-12 10_56_.mp4
2-2 首页顶部统计-周数据统计-就业班 2020-06-12 10_59_.mp4
2-3 定制发帖统计功能(通用饼状组件)-就业班 2020-06-12 11_01_.mp4
2-1 首页顶部统计信息-新增用户统计-就业班 2020-06-12 10_58_.mp4
2-5 近7日的统计数据(echarts进阶)-就业班 2020-06-12 11_03_.mp4
2-4 近6月累计发帖统计(aggregate进阶)-就业班 2020-06-12 11_02_.mp4
3-2 监控日志方法一:简单的调试日志koa-logger-就业班 2020-06-12 11_09_.mp4
3-1 准备联调开发环境-就业班 2020-06-12 11_07_.mp4
2-6 近7日的统计数据接口&联调-就业班 2020-06-12 11_04_.mp4
3-3 监控日志方法二:文件日志koa-log4j-就业班 2020-06-12 11_21_.mp4
3-4 错误日志收集koa中间件开发(持久化方案-数据库保存)-就业班 2020-06-12 11_11_.mp4
3-5 管理后台页面:table组件render进阶-就业班 2020-06-12 11_23_.mp4
3-7 错误日志筛选查询(表格filterRemote)-就业班 2020-06-12 11_26_.mp4
3-6 管理后台页面参数详情&批量删除功能-就业班 2020-06-12 11_24_.mp4
4-1 联调项目部署介绍-就业班 2020-06-12 11_29_.mp4
4-2 社区应用毅后端联调(配置接口权限、优化登录细节)-就业班 2020-06-12 11_30_.mp4
4-5 接口项目配置自动化任务(敏感信息、微信通知)-就业班 2020-06-12 11_34_.mp4
4-3 自动化流程回顾微信Jenkins节点管理-就业班 2020-06-12 11_31_.mp4
4-6 自动化部署前后台项目-就业班 2020-06-12 11_41_.mp4
4-4 项目部署准备(Dockerfile、生产环境mongo&redis)-就业班 2020-06-12 11_33_.mp4
课程资料.zip
├阶段5:流行的WebApp与小程序开发
第18周 WebApp页面设计与开发
1-2 Webapp原型稿&项目演示-就业班 2020-06-11 19_35_.mp4
2-1 Mint-ui介绍(熟悉组件名称、使用场景)-就业班 2020-06-11 19_35_.mp4
2-2 mint项目初始化(配置babel)-就业班 2020-06-11 19_36_.mp4
1-1 Webapp章导学-就业班 2020-06-11 19_34_.mp4
2-3 项目state分层及动态module加载(改造登录逻辑)-就业班 2020-06-11 19_37_.mp4
2-4 自定义icon组件(svg-sprite-loader的vue webpack配置)–就业班 2020-06-11 19_38_.mp4
2-6 全局样式方案:Normalize和Reset-就业班 2020-06-11 19_41_.mp4
2-5 自定义header组件(动态组件注册) (1)-就业班 2020-06-11 19_40_.mp4
2-7 全局预处理样式&变量sass-loader配置-就业班 2020-06-11 19_42_.mp4
2-8 如何修改UI框架主题?(三种思路)-就业班 2020-06-11 19_44_.mp4
3-1 添加首页路由及页面Tabs-就业班 2020-06-11 19_44_.mp4
3-2 自定义搜索组件(移动端适配方案postcss-px-to-viewport)-就业班 2020-06-11 19_54_.mp4
3-4 自定义Footer组件-就业班 2020-06-11 19_46_.mp4
3-3 作业:iconfont添加自定义去色的svg图片-就业班 2020-06-11 19_45_.mp4
课程代码和资料.rar
3-5 移动端适配底部Footer组件(mixin方法扩展应用)-就业班 2020-06-11 19_48_.mp4
3-6 下拉刷新、上拉加载(重要)-就业班 2020-06-11 19_50_.mp4
3-7 自定义首页ListItem组件-就业班 2020-06-11 19_52_.mp4
第19周 WebApp前后端联调
1-1 详情页面需求分析&详情页开发准备-就业班 2020-06-12 11_43_.mp4
1-2 详情页面开发-文章、底部输入框–就业班 2020-06-12 11_44_.mp4
1-3 完成评论列表样式–就业班 2020-06-12 11_45_.mp4
1-4 评论列表(无限滚动加载)–就业班 2020-06-12 11_46_.mp4
2-1 处理微信下拉黑边-就业班 2020-06-12 12_34_.mp4
2-2 移动端HTML的Meta标签配置-就业班 2020-06-12 11_47_.mp4
2-4 移动端底部Fixed定位交互设计-就业班 2020-06-12 11_49_.mp4
2-3 移动端横竖屏兼容CSS方案-就业班 2020-06-12 11_48_.mp4
3-1 登录页面基础结构-就业班 2020-06-12 11_49_.mp4
3-2 登录接口对接(Vuex进阶Namespace及使用)-就业班 2020-06-12 11_50_.mp4
3-4 完成个人中心样式(处理资源路径)-就业班 2020-06-12 11_53_.mp4
3-6 完成热门列表样式-就业班 2020-06-12 11_56_.mp4
3-3 个人中心页面头部样式-就业班 2020-06-12 11_51_.mp4
3-5 热门头部筛选样式-就业班 2020-06-12 11_54_.mp4
3-7 完成消息列表样式-就业班 2020-06-12 11_57_.mp4
4-10 如何调试过渡效果&动画?transition小结-就业班 2020-06-12 12_42_.mp4
4-11 热门模块组件化拆分-就业班 2020-06-12 12_43_.mp4
4-2 热门文章接口开发&调试-就业班 2020-06-12 12_01_.mp4
4-12 webapp自动化发布&打包优化(配置TerserWebpackPlugin)-就业班 2020-06-12 12_44_.mp4
4-1 热门功能前端接口定义(js策略模式)-就业班 2020-06-12 11_58_.mp4
4-4 热门帖子功能前后端联调-就业班 2020-06-12 12_03_.mp4
4-3 热门评论&签到接口开发-就业班 2020-06-12 12_02_.mp4
4-6 路由守卫&历史消息对接-就业班 2020-06-12 12_05_.mp4
4-7 NotFound页面及路由配置-就业班 2020-06-12 12_39_.mp4
4-5 热门评论&签到排行前后端联调-就业班 2020-06-12 12_04_.mp4
4-8 如何理解Vue中的Transtion过渡-就业班 2020-06-12 12_07_.mp4
4-9 移动端路由切换动画设计-就业班 2020-06-12 12_41_.mp4
第20周 小程序基础与进阶
1-1 章导学-就业班.mp4 1-2 小程序起源与技术思考-就业班 2020-06-12 13_09.mp4
1-3 重点内容介绍-就业班 2020-06-12 13_10_.mp4
2-1 小程序注册流程(建议使用非个人主体注册)-就业班 2020-06-12 13_10_.mp4
2-5 小程序宿主环境-就业班 2020-06-12 13_17().mp4 2-4 小程序工程目录-就业班 2020-06-12 13_16.mp4
2-3 开发者工具&第一个小程序应用-就业班 2020-06-12 13_13_.mp4
2-2 小程序后台开发配置、流程及UnionID机制-就业班 2020-06-12 13_15_.mp4
3-1 小程序样式语言WXSS及两种预编译方案介绍-就业班 2020-06-12 13_18_.mp4
3-2 小程序App&Page生命周期-就业班 2020-06-12 13_23_.mp4
3-3 WXML&WXSS语法简介-就业班 2020-06-12 13_24_.mp4
3-5 mpvue项目初始化-就业班 2020-06-12 13_29_.mp4
3-4 跨端框架横向对比(Wepy, mpvue, taro, uniapp)-就业班 2020-06-12 13_28_.mp4
第21周 小程序首页菜单定制登录开发
1-1 mpvue中webpack配置简介-就业班 2020-06-12 13_36_.mp4
1-2 集成vant-weapp&配置mpvue支持sass-就业班 2020-06-12 13_36_.mp4
2-1 完成底部导航(方法一:app.json中的tabBar配置)-就业班 2020-06-12 13_37_.mp4
2-2 自定义con组件(让小程序支持svg图标)-就业班 2020-06-12 13_37_.mp4
2-4 图解flex布局-就业班 2020-06-12 13_39_.mp4
2-3 自定义tabBar组件-就业班 2020-06-12 13_38_.mp4
3-1 首页标签页tabs切换-就业班 2020-06-12 13_41_.mp4
3-2 首页列表样式-就业班 2020-06-12 13_42_.mp4
2-5 使用van-tabbar&自定义van-icon-就业班 2020-06-12 13_40_.mp4
4-1 API接口Promise化-就业班 2020-06-12 13_44_.mp4
4-2 Request方法封装分析(如何取消请求)-就业班 2020-06-12 13_44_.mp4
3-3 首页自定义顶部导航-搜索框样式实现-就业班 2020-06-12 13_43_.mp4
4-4 中止重复请求&优化toast显示-就业班 2020-06-12 13_47_.mp4
4-3 wx.request封装为Promise方法(兼容原生)-就业班 2020-06-12 13_46_.mp4
4-5 小程序本地缓存token&封装post、get方法-就业班 2020-06-12 13_48_.mp4
5-1 首页部分自定义组件拆分-就业班 2020-06-12 13_49_.mp4
5-2 首页部分拆分自定义标签栏、搜索、列表组件-就业班 2020-06-12 13_50_.mp4
5-4 vuex状态管理&首页下拉刷新上拉加载-就业班 2020-06-12 13_52_.mp4
5-3 首页数据接口对接-就业班 2020-06-12 13_51_.mp4
5-5 下拉刷新上拉加载交互优化-就业班 2020-06-12 13_53_.mp4
第22周 小程序详情面个人中心开发
1-1 章导学必看-就业班 2020-06-12 14_05_.mp4
2-2 文章详情之HTML解析mpvue-wxParse-就业班 2020-06-12 14_07_.mp4
2-1 文章详情页面路由&基础数据-就业班 2020-06-12 14_06_.mp4
2-4 扩展知识:自定义mpvue高亮组件-就业班 2020-06-12 14_09_.mp4
2-3 mpvue中使用原生组件&自定义小程序组件-就业班 2020-06-12 14_08_.mp4
2-5 代码高亮之自定义wxParse组件-就业班 2020-06-12 14_10_.mp4
2-6 评论列表接口对接&封装通用分页类Paging-就业班 2020-06-12 14_11_.mp4
2-7 onReachBottom事件&底部回复样式-就业班 2020-06-12 14_12_.mp4
2-8 表情事件绑定&3种safeArea适配方案-就业班 2020-06-12 14_21_.mp4
3-4 开放数据校验与解密-就业班 2020-06-12 14_25_.mp4
3-2 完成登录页样式-就业班 2020-06-12 14_22_.mp4
3-1 微信登录流程介绍-就业班 2020-06-12 14_39_.mp4
3-3 获取用户信息&微信登录接口开发-就业班 2020-06-12 14_23_.mp4
3-5 小程序侧登录状态校验与授权登录-就业班 2020-06-12 14_25_.mp4
4-2 个人中心跳转首页&globalData全局变量-就业班 2020-06-12 14_31_.mp4
3-6 用户信息校验-就业班 2020-06-12 14_26_.mp4
4-1 完成个人中心&用户数据对接-就业班 2020-06-12 14_29_.mp4
3-7 后台登录接口开发&调试-就业班 2020-06-12 14_27_.mp4
第23周 小程序编辑与发贴开发
1-1 章导学-就业班 2020-06-12 14_41_.mp4
2-1 SSL证书&Nginx配置介绍-就业班 2020-06-12 14_41_.mp4
2-2 使用acme.sh申请免费的SSL证书-就业班 2020-06-12 14_42_.mp4
2-3 docker-compose配置nginx-就业班 2020-06-12 14_43_.mp4
2-4 场景一:静态站nginx配置HTTPS协议(A微信安全评级)-就业班 2020-06-12 14_44_.mp4
3-1 小程序订阅消息机制&使用说明-就业班 2020-06-12 14_45_.mp4
3-2 小程序订阅消息基础用法-就业班 2020-06-12 14_46_.mp4
3-4 从服务端获取订阅消息模板IDs-就业班 2020-06-12 14_51_.mp4
3-6 订阅消息通用utils开发&订阅消息联调-就业班 2020-06-12 15_19_.mp4
3-3 订阅消息的应用场景-就业班 2020-06-12 14_48_.mp4
4-1 用户发贴&内容安全介绍-就业班 2020-06-12 15_01_.mp4
3-5 accessToken定时更新机制设计-就业班 2020-06-12 14_51_.mp4
4-2 完成发贴部分样式&集成上传图片组件-就业班 2020-06-12 15_01_.mp4
4-5 小程序图片上传接口wx.uploadFile封装&接口联调-就业班 2020-06-12 15_07_.mp4
4-3 内容安全:文本内容安全微信小程序接口对接-就业班 2020-06-12 15_03_.mp4
4-4 内容安全:图片内容安全微信小程序接口对接-就业班 2020-06-12 15_04_.mp4
5-1 打包优化-就业班 2020-06-12 15_08_.mp4
5-2 mpvue小程序分包-就业班 2020-06-12 15_09_.mp4
第24周 项目部署、运维与展望
1-1 周导学-就业班 2020-06-12 15_21_.mp4
2-3 Jenkins任务构建通知-就业班 2020-06-12 15_23_.mp4
2-1 Linux中分区扩展–就业班 2020-06-12 15_22_.mp4
2-2 如何更新Jenkins&加速插件下载-就业班 2020-06-12 15_22_.mp4
2-7 学生相关的资源(针对大学生)-就业班 2020-06-12 15_25_.mp4
2-6 如何访问G歌服务?(推荐自建)-就业班 2020-06-12 15_25_.mp4
2-4 更简单上手的HTTPS服务Caddy简介-就业班 2020-06-12 15_23_.mp4
2-5 Caddy Version2上手Cloudflare DNS配置HTTPS-就业班 2020-06-12 15_27_.mp4
3-1 前端人的窘境-就业班 2020-06-12 15_25_.mp4
3-2 课程展望-就业班 2020-06-12 15_26_.mp4
├阶段1:前端基础入门
├第1周 HTML5基础语法与标签
第1节 前置引导课(课前必看)
1-2 课程简介.mp4
2-1 前端开发行业介.mp4
2-2 前端开发主要技术介绍.mp4
2-3 本系列课程整体简介.mp4
1-1 前端工程师整体介绍】.mp4
2-4 学习方法介绍.mp4
4-1 课程总结.mp4
3-1 IDE简介.mp4
3-2 VSCode安装、配置和插件.mp4
辅助材料
-学习资料预览.pdf
第2节 HTML语法与基础标签
1-1 课程简介.mp4
3-03 自由编程-就业班.pdf
3-05 选择题-就业班.pdf
2-1 互联网基本原理.mp4
3-06 选择题-就业班.pdf
3-07 选择题-就业班.pdf
3-02 浏览网页的方法.mp4
3-09 编程练习-就业班.pdf
3-11 选择题-就业班.pdf
3-12 编程练习-就业班.pdf
3-04 认识HTML5骨架.mp4
3-14 选择题-就业班.pdf
3-15 选择题-就业班.pdf
3-16 选择题-就业班.pdf
3-01 创建第一个网页.mp4
3-18 选择题-就业班.pdf
3-19 编程练习-就业班.pdf
3-08 字符集.mp4
3-10 title、关键词及页面描述.mp4
3-13 认识标签.mp4
3-22 选择题-就业班.pdf
3-23 选择题-就业班.pdf
3-24 编程练习-就业班.pdf
3-25 小慕医生项目开发(1).mp4
3-27 自由编程-就业班.pdf
3-20 div标签.mp4
3-26 小慕医生项目开发(2).mp4
3-21 HTML5特性.mp4
3-17 标题和段落标签.mp4
4-1 课程总结.mp4
5f857bfa706adc349060350a.rar
辅助材料
HTML5特性.pdf
title关键词.pdf
创建和浏览网页.pdf
互联网基本原理.pdf
课程简介.pdf
HTML5语法与基础标签案例.zip
课程总结.pdf
认识HTML骨架.pdf
字符集.pdf
认识标签.pdf
小慕医生设计稿切图.zip
小医生源码H5语法与基础标签.zip
第3节 列表标签
1-1 课程简介.mp4
2-02 选择题-就业班.pdf
2-03 编程练习-就业班.pdf
2-05 选择题-就业班.pdf
2-06 编程练习-就业班.pdf
2-07 编程练习-就业班.pdf
2-09 选择题-就业班.pdf
2-10 选择题-就业班.pdf
2-11 编程练习-就业班.pdf
2-12 编程练习-就业班.pdf
2-14 选择题-就业.pdf
2-15 选择题-就业班.pdf
2-04 无序列表-列表嵌套.mp4
2-08 有序列表.mp4
2-17 自由编程-就业班.pdf
2-01 无序列表-基本使用.mp4
5f857e21a87f9a45cfa3730f.rar
2-13 定义列表.mp4
3-1 课程总结.mp4
2-16 小慕医生项目开发.mp4
辅助材料
课程简介.pdf
定义列表.pdf
课程总结.pdf
列表标签案例.zip
无序列表.pdf
有序列表.pdf
小医生源码列表标签.zip
第4节 多媒体与语义化标签
1-1 课程简介.mp4
2-02 选择题-就业班.pdf
2-03 编程练习-就业班.pdf
2-06 选择题-就业班.pdf
2-07 选择题-就业班.pdf
2-08 编程练习-就业班.pdf
2-01 图片标签(1).mp4
2-04 图片标签(2.mp4
2-10 选择题-就业班.pdf
2-11 选择题-就业班.pdf
2-12选择题-就业班.pdf
2-09 超级链接(2.mp4
2-13 选择题-就业班.pdf
2-14 编程练习-就业班.pdf
2-15 编程练习-就业班.pdf
2-18 选择题-就业班.pdf
2-17 选择题-就业班.pdf
2-19 图文节-就业班.pdf
2-05 超级链接(1.mp4
3-2 选择题-就业班.pdf
3-3 编程练习-就业班.pdf
3-5 选择题-就业班.pdf
3-7 自由编程-就业班.pdf
4-1 课程总结.mp4
5f857f47a1b080e6cc90bc9b.rar
3-1 大纲标签.mp4
2-16 音频和视频.mp4
3-6 小慕医生项目开发.mp4
3-4 语义化标签.mp4
辅助材料
超级链接.pdf
课程简介.pdf
课程总结.pdf
图片标签.pdf
多媒体与语义化标签案例.zip
区块标签.pdf
小慕医生源码多媒体与语义化标签.zip
音频和视频.pdf
第5节 表单标签
1-1 课程简介.mp4
2-01 表单的创建.mp4
2-02 选择题-就业班.pdf
2-04 选择题-就业班.pdf
2-05 选择题-就业班.pdf
2-06 编程练习-就业班.pdf
2-07 编程练习-就业班.pdf
2-09 选择题-就业班.pdf
2-10 选择题-就业班.pdf
2-11 选择题-就业班.pdf
2-12 编程练习-就业班.pdf
2-14 编程练习-就业班.pdf
2-15 选择题-就业班.pdf
2-17 自由编程-就业班.pdf
2-16 小慕医生项目开发.mp4
3-1 课程总结.mp4
2-08 基本控件(2.mp4
2-13 HTML5中新增的表单控件.mp4
2-03 基本控件(1.mp4
辅助材料
表单标签案例.zip
HTML5新增控件.pdf
表单的创建.pdf
课程简介.pdf
课程总结.pdf
基本控件.pdf
小慕医生源码表单标签.zip
第6节 表格标签
1-1 课程简介.mp4
2-2 选择题-就业班.pdf
2-3 选择题-就业班.pdf
2-4 选择题-就业班.pdf
2-5 选择题-就业班.pdf
2-6 编程练习-就业班.pdf
2-7 编程练习-就业班.pdf
2-9 编程练习-就业班.pdf
3-1 课程总结.mp4
2-1 表格标签.mp4
2-8 单元格的合并.mp4
辅助材料
表格标签.pdf
表格标签案例.zip
表格的其他特性.pdf
单元格的合并.pdf
课程简介.pdf
课程总结.pdf
悬浮截图工具包.zip
├第2周 CSS3基础语法与盒模型
第1节 CSS3基础入门
1-1 课程简介.mp4
2-3 选择题-就业班.pdf
2-4 选择题-就业班.pdf
2-5 编程练习-就业班.pdf
2-6 编程练习-就业班.pdf
2-8 选择题-就业班.pdf
2-9 编程练习-就业班.pdf
3-1 课程总结.mp4
2-1 CSS3简介.mp4
2-2 CSS的书写位置.mp4
2-7 CSS的基本语法.mp4
辅助材料
CSS3基础入门案例.zip
CSS3.pdf
Css3书写位置.pdf
课程简介.pdf
课程总结.pdf
第2 节 CSS3选择器
1-1 课程简介.mp4
2-02 选择题-就业班.pdf
2-03 选择题-就业班.pdf
2-04 选择题-就业班.pdf
2-05 编程练习-就业班.pdf
2-07 选择题-就业班.pdf
2-08 选择题-就业班.pdf
2-09 编程练习-就业班.pdf
2-12 选择题-就业班.pdf
2-11 选择题-就业班.pdf
2-13 编程练习-就业班.pdf
2-15 选择题-就业班.pdf
2-16 选择题-就业班.pdf
2-17 编程练习-就业班.pdf
2-01 标签选择器和id选择器.mp4
2-18 编程练习-就业班.pdf
2-19 编程练习-就业班.pdf
3-02 选择题-就业班.pdf
3-03 编程练习-就业班.pdf
2-14 伪类.mp4
3-04 编程练习-就业班.pdf
2-10 复合选择器.mp4
3-06 选择题-就业班.pdf
3-07 选择题-就业班.pdf
3-08 选择题-就业班.pdf
2-06 class选择器.mp4
3-09 选择题-就业班.pdf
3-10 选择题-就业班.pdf
3-11 选择题-就业班.pdf
3-12 选择题-就业班.pdf
3-13 选择题-就业班..pdf
3-14 选择题-就业班.pdf
3-15 编程练习-就业班.pdf
3-18 选择题-就业班.pdf
3-16 编程练习-就业班.pdf
3-19 选择题-就业班.pdf
3-20 选择题-就业班.pdf
3-22 选择题-就业班.pdf
3-21 选择题-就业班.pdf
3-23 编程练习-就业班.pdf
3-25 选择题-就业班.pdf
3-26 选择题-就业班.pdf
3-01 元素关系选择器.mp4
3-27 选择题-就业班.pdf
3-28 选择题-就业班.pdf
3-29 编程练习-就业班.pdf
3-30 编程练习-就业班.pdf
3-32 编程练习-就业班.pdf
3-05 序号选择器.mp4
3-33 编程练习-就业班.pdf
3-17 属性选择器.mp4
3-24 CSS3新增伪类.mp4
3-35 选择题-就业班.pdf
3-36 选择题-就业班.pdf
3-37 选择题-就业班.pdf
3-39 编程练习-就业班.pdf
3-38 编程练习-就业班.pdf
3-31 伪元素.mp4
3-34 层叠性和选择器权重计算.mp4
4-1 课程总结.mp4
辅助材料
CSS3新增选择器.pdf
传统CSS2.1选择器.pdf
CSS3选择器案例.zip
课程简介.pdf
课程总结.pdf
选择器权重计算.pdf
第3节 文本与字体属性
1-1 课程简介.mp4
2-02 选择题-就业班.pdf
2-03 选择题-就业班.pdf
2-05 编程练习-就业班微 .pdf
2-06 编程练习-就业班.pdf
2-04 选择题-就业班.pdf
2-08 选择题-就业班.pdf
2-09 选择题-就业班.pdf
2-10 编程练习-就业班.pdf
2-12 选择题-就业班.pdf
2-13 选择题-就业班.pdf
2-14 选择题-就业班.pdf
2-16 编程练习-就业班.pdf
2-15 选择题-就业班.pdf
2-17 编程练习-就业班.pdf
2-19 选择题-就业班.pdf
2-20 选择题-就业班.pdf
2-01 常用文本样式属性.mp4
3-1 课程总结.mp4
2-11 段落和行相关属性.mp4
2-07 字体属性详解.mp4
2-18 继承性.mp4
辅助材料
段落和行.pdf
常用文本样式属性.pdf
继承性.pdf
课程简介.pdf
课程总结.pdf
文本与字体属性案例.zip
字体属性.pdf
第4节 盒模型
1-1 课程简介.mp4
2-2 认识盒模型.mp4
2-1 认识盒模型(1).mp4
2-4 margin属性详解.mp4
2-6 box-sizing属性.mp4
2-5 盒模型计算.mp4
2-3 padding属性详解.mp4
2-9 元素的隐藏.mp4
3-1 课程总结.mp4
2-8 行内元素和块级元素的相互转换.mp4
2-7 display属性.mp4
辅助材料
margin.pdf
Padding.pdf
盒模型案例.zip
课程简介.pdf
盒模型计算.pdf
课程总结.pdf
认识盒模型.pdf
行内元素和块级元素.pdf
├第3周 CSS3浮动定位与背景样式
第1节 浮动与定位
1-1 课程简介.mp4
2-1 浮动的基本概念.mp4
3-02 编程练习-就业班.pdf
2-2 使用浮动实现网页布局.mp4
2-4 清除浮动.mp4
2-3 BFC规范和浏览器差异.mp4
3-01 相对定位.mp4
3-04 选择题-就业班.pdf
3-06 编程练习-就业班.pdf
3-05 选择题-就业班.pdf
3-07 编程练习-就业班.pdf
3-10 选择题-就业班.pdf
3-11 编程练习-就业班.pdf
3-12 编程练习-就业班.pdf
3-03 绝对定位(1.mp4
3-09 固定定位.mp4
4-04 自由编程-就业班.pdf
3-08 绝对定位(2.mp4
4-06 自由编程-就业班.pdf
4-03 小慕医生项目开发(3.mp4
4-08 自由编程-就业班.pdf
4-07 小慕医生项目开发(5.mp4
4-02 小慕医生项目开发(2)【.mp4
4-01 小慕医生项目开发(1.mp4
4-10 自由编程-就业班.pdf
4-11 自由编程-就业班.pdf
4-05 小慕医生项目开发(4.mp4
5-1 课程总结.mp4
4-14 小慕医生项目开发(9.mp4
4-12 小慕医生项目开发(7.mp4
4-13 小慕医生项目开发(8.mp4
5f8a84478f53976207ea7ff5.rar
5f8a850c87634adf8801ba15.rar
4-09 小慕医生项目开发(6.mp4
5f8a854c775917bbe98fdffd.rar
5f8a858420e0c20c1eb2b531.rar
辅助材料
浮动和定位案例.zip
定位.pdf
浮动.pdf
课程简介.pdf
小慕医生项目开发.pdf
课程总结.pdf
小慕医生源码浮动与定位.zip
第2节 边框与圆角
1-1 课程简介.mp4
2-03 选择题-就业班.pdf
2-02 选择题-就业班.pdf
2-04 编程练习-就业班.pdf
2-06 编程练习-就业班.pdf
2-08 选择题-就业班.pdf
2-09 选择题-就业班.pdf
2-11 编程练习-就业班.pdf
2-10 编程练习-就业班.pdf
2-13 选择题-就业班.pdf
2-14 编程练习-就业班.pdf
2-05 四个方向的边.mp4
2-01 边框的三要素.mp4
2-07 圆角.mp4
2-16 自由编程-就业班.pdf
2-12 盒子阴影.mp4
3-1 课程总结.mp4
5f858710602eff7790db396c.rar
2-15 小慕医生项目开发.mp4
辅助材料
边框.pdf
边框与圆角案例.zip
课程简介.pdf
课程总结.pdf
阴影.pdf
小慕医生源码边框与圆角.zip
圆角.pdf
第3节 背景与渐变
1-1 课程简介.mp4
2-01 背景颜色基础知识.mp4
2-03 编程练习-就业班.pdf
2-05 选择题-就业班.pdf
2-06 选择题-就业班.pdf
2-08 选择题-就业班.pdf
2-09 编程练习-就业班.pdf
2-11 选择题-就业班.pdf
2-12 选择题-就业班.pdf
2-13 编程练习-就业班.pdf
2-02 背景图片基础知识.mp4
2-04 背景图片的重复模式.mp4
2-07 背景尺寸.mp4
2-16 选择题-就业班.pdf
2-17 选择题-就业班.pdf
2-19 编程练习-就业班.pdf
2-10 背景裁切.mp4
2-18 background综合属性.mp4
2-21 选择题-就业班.pdf
2-22 选择题-就业班.pdf
2-23 编程练习-就业班.pdf
2-24 编程练习-就业班.pdf
2-26 选择题-就业班.pdf
2-14 背景固定.mp4
2-25 径向渐变.mp4
2-15 背景图片位置.mp4
3-1 课程总结.mp4
2-20 线性渐变.mp4
2-27 小慕医生项目开发.mp4
辅助材料
背景基础知识.pdf
背景渐变.pdf
背景案例.zip
课程总结.pdf
背景图片.pdf
课程简介.pdf
小慕医生源码背景与渐变.zip
小慕医生源码背景与渐变 (1).zip
第4节 2D与3D转换
1-1 课程简介.mp4
2-10 选择题-就业班.pdf
2-14 编程练习-就业班.pdf
2-13 编程练习-就业班.pdf
2-2 选择题-就业班.pdf
2-3 选择题-就业班.pdf
2-5 选择题-就业班.pdf
2-6 选择题-就业班.pdf
2-4 缩放变形.mp4
2-1 旋转变形.mp4
2-8 选择题-就业班.pdf
2-7 斜切变形.mp4
2-9 位移变形.mp4
3-1 课程总结.mp4
2-12 空间移动.mp4
2-11 3D旋转.mp4
辅助材料
2D与3D转换源码.zip
3D变形.pdf
2D变形.pdf
课程简介.pdf
课程总结.pdf
├第4周 CSS3动画与穷游首页开发实战
第1节 过渡与动画
1-1 课程简.mp4
2-02 选择题-就业班.pdf
2-03 选择题-就业班.pdf
2-04 编程练习-就业班.pdf
2-06 选择题-就业班.pdf
2-07 编程练习-就业班.pdf
2-09 自由编程-就业班.pdf
2-05 过渡的缓动效果.mp4
2-12 编程练习-就业班.pdf
2-08 过渡效果实战课(1.mp4
2-01 过渡的基本使用.mp4
2-14 编程练习-就业班.pdf
2-16 选择题-就业班.pdf
2-17 选择题-就业班.pdf
2-11 过渡效果实战课(3.mp4
2-18 编程练习-就业班.pdf
2-10 过渡效果实战课(2.mp4
2-20 编程练习-就业班.pdf
2-13 过渡效果实战课(4.mp4
2-21 自由编程-就业班.pdf
5f87d55cfe470cab21bcd6d4.zip
3-1 课程总结.mp4
2-15 动画的定义和调用.mp4
2-19 动画效果实战课.mp4
辅助材料
过渡.pdf
课程简介.pdf
动画.pdf
过渡和动画源码.zip
课程总结.pdf
第2节 “仿穷游”首页静态项目
1-1 课程简介.mp4
2-3 页面顶部的开发(2.mp4
2-10 垂直菜单开发(2.mp4
2-1 项目起步准备.mp4
2-2 页面顶部的开发(1.mp4
2-5 字体图标的使用.mp4
2-4 页面顶部的开发(3.mp4
2-7 大Banner的布局(1).mp4
2-6 使用CSS制作菜单.mp4
2-8 大Banner的布局(2).mp4
2-9 垂直菜单开发(1.mp4
3-1 新鲜甩尾部分开发.mp4
3-3 机酒自由行部分开发(2.mp4
3-2 机酒自由行部分开发(1.mp4
3-5 当地玩乐部分开发(2).mp4
3-7 公共类的使用(2.mp4
3-6 公共类的使用(1.mp4
3-4 当地玩乐部分开发(1.mp4
5-1 课程总结.mp4
5-2 作业题-就业班.pdf
4-1 页面底部开发(1.mp4
3-9 过渡和变形在实战中的应用(2.mp4
3-8 过渡和变形在实战中的应用(1.mp4
5f647cabd92bc7675a92e3d6.zip
辅助材料
-学习资料预览.pdf
慕云游项目静态开发.zip
仿穷游设计稿.zip
├第5周 JS基础语法与表达式
第1节 JS语法与变量
1-2 选择题-就业班.pdf
2-11 编程练习-就业班.pdf
2-12 编程练习-就业班.pdf
2-2 选择题-就业班.pdf
2-3 编程练习-就业班.pdf
2-4 自由编程-就业班.pdf
1-1 初识JavaScript.mp4
2-6 选择题-就业班.pdf
2-7 选择题-就业班.pdf
2-8 选择题-就业班.pdf
2-9 选择题-就业班.pdf
3-2 选择题-就业班.pdf
3-3 选择题-就业班.pdf
3-4 选择题-就业班.pdf
2-1 JS的书写位置.mp4
3-5 选择题-就业班.pdf
3-7 选择题-就业班.pdf
2-10 学会处理报错.mp4
2-5 认识输出语句.mp4
3-6 变量声明提升.mp4
4-1 课程总结.mp4
3-1 变量.mp4
辅助材料
JavaScript.pdf
JavaScript语法和变量源码.zip
课程总结.pdf
JavaScript语法与变量.pdf
第2节 JS基本数据类型
1-1 课程简介.mp4
2-2 选择题-就业班.pdf
2-3 选择题-就业班.pdf
2-4 选择题-就业班.pdf
2-5 选择题-就业班.pdf
3-02 选择题-就业班.pdf
3-03 选择题-就业班.pdf
3-04 选择题-就业班.pdf
3-06 选择题-就业班.pdf
3-07 选择题-就业班.pdf
2-1 数据类型简介和检测.mp4
3-08 选择题-就业班.pdf
3-11 选择题-就业班.pdf
3-09 选择题-就业班.pdf
3-10 选择题-就业班.pdf
3-14 编程练习-就业班.pdf
3-12 编程练习-就业班.pdf
3-13 编程练习-就业班.pdf
3-16 编程练习-就业班.pdf
3-15 编程练习-就业班.pdf
3-17 Boolean(布尔)类型.mp4
3-18 Undefined类型.mp4
3-20 选择题-就业班.pdf
4-10 编程练习-就业班.pdf
4-2 选择题-就业班.pdf
3-01 Number(数字)类型.mp4
4-3 选择题-就业班.pdf
4-4 选择题-就业班.pdf
4-5 选择题-就业班.pdf
4-6 选择题-就业班.pdf
4-7 编程练习-就业班.pdf
4-8 编程练习-就业班.pdf
3-19 Null类型.mp4
3-05 String(字符串)类型.mp4
5-1 复杂数据类型简介.mp4
6-1 课程总结.mp4
4-1 数据类型转换.mp4
4-9 小案例:小小加法计算器.mp4
辅助材料
JavaScript基本数据类型.pdf
JavaScript基本数据类型案例.zip
课程总结.pdf
数据类型讲解.pdf
第3节 表达式与操作符
1-1 课程简介.mp4
2-01 什么是表达式和运算符.mp4
2-03 选择题-就业班.pdf
2-04 编程练习-就业班.pdf
2-06 选择题-就业班【.pdf
2-07 选择题-就业班.pdf
2-02 算术表达式.mp4
2-08 选择题-就业班.pdf
2-09 编程练习-就业班.pdf
2-11 选择题-就业班.pdf
2-13 选择题-就业班.pdf
2-12 选择题-就业班.pdf
2-15 编程练习-就业班.pdf
2-14 选择题-就业班.pdf
2-05 算术表达式.mp4
2-17 选择题-就业班.pdf
2-18 选择题-就业班.pdf
2-19 选择题-就业班.pdf
2-21 选择题-就业班.pdf
2-20 选择题-就业班.】.pdf
2-22 编程练习-就业班.pdf
2-23 编程练习-就业班.pdf
2-25 选择题-就业班.pdf
2-26 选择题-就业班.pdf
2-27 选择题-就业班.pdf
2-28 选择题-就业班.pdf
2-29 选择题-就业班.pdf
2-30 编程练习-就业班.pdf
2-31 编程练习-就业班.pdf
2-33 选择题-就业班.pdf
2-34 选择题-就业班.pdf
2-35 编程练习-就业班.pdf
2-10 关系表达式.mp4
2-16 逻辑表达式.mp4
2-24 赋值表达式.mp4
2-32 综合表达式.mp4
3-1 课程总结.mp4
辅助材料
表达式与操作符案例.zip
表达式和运算符.pdf
课程总结.pdf
算术表达式.pdf
├第6周 JS流程控制语句与数组
第1节 流程控制语句
1-1 课程简介.mp4
2-11 编程练习-就业班.pdf
2-12 编程练习-就业班】.pdf
2-13 编程练习-就业班.pdf
2-15 选择题-就业班.pdf
2-16 编程练习-就业班.pdf
2-17 编程练习-就业班.pdf
2-19 选择题-就业】.pdf
2-2 选择题-就业班.pdf
2-20 编程练习-就业班.pdf
2-1 if语句的基本使用.mp4
2-4 选择题-就业班.pdf
2-5 选择题-就业班.pdf
2-6 选择题-就业班.pdf
2-7 编程练习-就业班.pdf
2-18 三元运算符.mp4
2-8 编程练习-就业班.pdf
2-9 编程练习-就业班.pdf
3-02 选择题-就业班.pdf
3-03 选择题-就业班.pdf
3-04 选择题-就业班.pdf
2-14 switch语句.mp4
3-05 选择题-就业班.pdf
2-10 if语句算法题】.mp4
3-06 选择题-就业班.pdf
3-07 编程练习-就业班.pdf
3-10 选择题-就业班.pdf
3-11 编程练习-就业班,.pdf
3-12 编程练习-就业班.pdf
2-3 if-else-if多条件分支.mp4
3-14 选择题-就业班.pdf
3-15 选择题-就业班.pdf
3-16 选择题-就业班.pdf
3-17 编程练习-就业班.pdf
3-18 编程练习-就业班.pdf
3-01 for循环语句.mp4
3-20 选择题-就业班.pdf
3-08 for循环算法题.mp4
3-21 选择题-就业班.pdf
3-13 break和continue.mp4
3-23 编程练习-就业班.pdf
3-24 编程练习-就业班.pdf
4-10 编程练习-就业班.pdf
4-11 编程练习-就业班.pdf
4-12 编程练习-就业班.pdf
4-13 编程练习-就业班.pdf
3-19 do-while循环.mp4
4-3编程练习.pdf
4-1 什么是算法.mp4
4-5 编程练习-就业.pdf
4-6 编程练习-就业班.pdf
3-09 while循环语句.mp4
4-8 选择题-就业班.pdf
4-9 编程练习-就业班.pdf
3-22 while语句算法题.mp4
5-1 课程总结.mp4
4-2 累加器和累乘器.mp4
4-4 穷举法.mp4
4-7 综合算法题目.mp4
辅助材料
课程简介.pdf
初识算法.pdf
课程总结.pdf
条件语句.pdf
流程控制语句.rar
循环语句.pdf
第2节 数组
1-1 课程简介.mp4
2-10 编程练习-就业班.pdf
2-11 编程练习-就业班.pdf
2-12 数组类型的检测.mp4
2-13 选择题-就业班.pdf
2-14 编程练习-就业班.pdf
2-3 选择题-就业班.pdf
2-4 选择题-就业班.pdf
2-1 数组简介和定义.mp4
2-6 选择题-就业班.pdf
2-5 选择题-就业班.pdf
2-7 选择题-就业班.pdf
2-8 选择题-就业班.pdf
2-9 编程练习-就业班.pdf
3-12 选择题-就业班.pdf
3-10 编程练习-就业班.pdf
3-13 选择题-就业班.pdf
3-14 选择题-就业班.pdf
3-15 选择题-就业班.pdf
2-2 数组简介和定义(2).mp4
3-16 选择题-就业班.pdf
3-17 编程练习-就业班.pdf
3-2 选择题-就业班.pdf
3-4 选择题-就业班.pdf
3-3 选择题-就业班.pdf
3-6 选择题-就业班.pdf
3-7 选择题-就业班.pdf
3-8 选择题-就业班.pdf
3-9 选择题-就业班.pdf
4-2 编程练习-就业班.pdf
4-3 编程练习-就业班.pdf
3-11 数组的常用方法(3).mp4
3-1 数组的常用方法(1).mp4
4-1 遍历相关算法.mp4
4-7 编程练习-就业班.pdf
4-8 编程练习-就业班.pdf
3-5 数组的常用方法(2).mp4
5-2 选择题-就业班.pdf
4-4 数组去重和随机样本.mp4
5-3 选择题-就业班.pdf
4-5 冒泡排序.mp4
4-6 二维数组.mp4
5-4 选择题-就业班.pdf
5-8 编程练习-就业班.pdf
5-5 编程练习-就业班.pdf
5-7 选择题-就业班.pdf
6-1 课程总结.mp4
5-1 基本类型值和引用类型值.mp4
5-6 深克隆和浅克隆.mp4
辅助材料
课程总结.pdf
课程简介.pdf
数组的常用方法.pdf
数组案例.zip
数组简介和定义.pdf
数组算法.pdf
├第7周 JS函数与DOM
第1节 函数
2-01 什么是函数.mp4
1-1 课程简介.mp4
2-03 选择题-就业班,.pdf
2-04 选择题-就业班,.pdf
2-06 选择题-就业班.pdf
2-07 选择题-就业班.pdf
2-08 选择题-就业班.pdf
2-09 编程练习-就业班.pdf
2-11 选择题-就业班.pdf
2-12 选择题-就业.pdf
2-13 选择题-就业班.pdf
2-02 函数的定义和调用(1).mp4
2-14 选择题-就业班.pdf
2-15 选择题-就业班.pdf
2-16 编程练习-就业班.pdf
2-17 编程练习-就业班.pdf
2-19 选择题-就业班.pdf
2-20 选择题-就业班.pdf
2-21 编程练习-就业班.pdf
2-22 编程练习-就业班.pdf
2-05 函数的定义和调用(2.mp4
3-3编程练习.pdf
3-4 编程练习-就业班.pdf
2-10 函数的参数和返回值(1.mp4
4-2 编程练习-就业班.pdf
3-2 函数算法题(2.mp4
2-18 函数的参数和返回值(2).mp4
3-1 函数算法题(1).mp4
4-4 编程练习-就业班.pdf
4-1 什么是递归.mp4
4-3 递归常见算法题.mp4
5-2 选择题-就业班..pdf
5-4 选择题-就业班.pdf
5-5 选择题-就业班.pdf
5-6 选择题-就业班.pdf
5-1 全局变量和局部变量(1).mp4
4-5 实现深克隆.mp4
5-10 立即执行函数IIFE.mp4
5-3 全局变量和局部变量(2).mp4
6-1 课程总结.mp4
5-7 什么是闭包.mp4
5-8 闭包的记忆性-案例.mp4
5-9 闭包模拟私有变量.mp4
辅助材料
函数定义与基本使用.pdf
函数案例.zip
函数作用域和立即执行函数.pdf
课程总结.pdf
课程简介.pdf
函数算法题和递归.pdf
第2节 DOM
1-1 课程简介.mp4
3-1 nodeType.mp4
3-10 选择题-就业班.pdf
2-1 DOM基本概念.mp4
3-14 选择题-就业班.pdf
3-15 选择题-就业班.pdf
3-16 编程练习-就业班.pdf
3-13 innerHTML&innerText.mp4
3-11 节点的关系.mp4
3-19 图文节-就业班.pdf
3-12 封装节点关系函数.mp4
3-4 选择题-就业班.pdf
3-17 节点操作.mp4
3-2 document.mp4
3-3 getElementById().mp4
3-7 选择题-就业班.pdf
3-8 选择题-就业班.pdf
3-18 节点的创建、移除和克隆.mp4
3-5 延迟运行.mp4
4-10 编程练习-就业班.pdf
4-11 编程练习-就业班.pdf
4-12 编程练习-就业班.pdf
3-6 getElementsByTagName().mp4
4-15 选择题-就业班.pdf
4-16 选择题-就业班.pdf
3-9 querySelector()&querySelectorAll().mp4
4-14 事件对象(1).mp4
4-13 事件传播.mp4
4-2 选择题-就业班.pdf
4-1 事件监听.mp4
4-18 事件对象(3).mp4
4-17 事件对象(2).mp4
4-19 事件对象(4).mp4
4-22 选择题-就业班.pdf
4-4 选择题-就业班.pdf
4-3 选择题-就业班.pdf
4-5 选择题-就业班.pdf
4-6 选择题-就业班.pdf
4-7 选择题-就业班.pdf
4-9 编程练习-就业班.pdf
4-8 编程练习-就业班.pdf
4-21 事件委托(2).mp4
5-2 定时器和延时器(2).mp4
4-20 事件委托(1).mp4
5-3 使用定时器实现动画.mp4
5-1 定时器和延时器(1).mp4
6-1 JS和CSS3结合实现动画.mp4
6-2 无缝连续滚动特效.mp4
6-4 编写呼吸轮播特效.mp4
7-1 课程总结.mp4
6-3 编写跑马灯轮播图特效.mp4
辅助材料
DOM案例.zip
定时器和延时器.pdf
动画效果开发.pdf
DOM基本概念.pdf
课程简介.pdf
DOM事件.pdf
课程总结.pdf
第3节 BOM基础
1-1 课程简介.mp4
2-02 选择题-就业班.pdf
2-04 选择题-就业班.pdf
2-03 选择题-就业班.pdf
2-05 选择题-就业班.pdf
2-07 选择题-就业班.pdf
2-08 编程练习-就业班.pdf
2-10 选择题-就业班.pdf
2-11 编程练习-就业班.pdf
2-06 Navigator 对象.mp4
2-13 编程练习-就业班.pdf
2-09 History 对象.mp4
3-1 课程总结.mp4
2-01 Window 对象.mp4
2-12 Location 对象.mp4
2-15 BOM特效开发(2.mp4
2-14 BOM特效开发(1.mp4
辅助材料
BOM基础案例.zip
课程总结.pdf
课程简介.pdf
BOM.pdf
├第8周 面向对象
第1节 面向对象
1-1 课程简介.mp4
2-2 选择题-就业班.pdf
2-3 选择题-就业班.pdf
2-4 编程练习-就业班.pdf
2-5 对象的方法.mp4
2-6 选择题-就业班.pdf
2-8 选择题-就业班.pdf
2-10 对象的深浅克隆(2).mp4
2-1 认识对象.mp4
3-11 选择题-就业班.pdf
3-12 选择题-就业班.pdf
2-7 对象的遍历.mp4
3-3 上下文规则(2).mp4
3-4 选择题-就业班.pdf
2-9 对象的深浅克隆(1).mp4
3-6 选择题-就业班.pdf
3-5 上下文规则(3).mp4
3-2 上下文规则(1).mp4
3-1 认识上下文.mp4
3-10 call和apply.mp4
3-8 上下文规则(5).mp4
3-7 上下文规则(4).mp4
3-9 上下文规则(6).mp4
4-3 类和实例.mp4
4-1 用new调用函数的四步走.mp4
4-2 构造函数.mp4
5-2 在prototype上添加方法.mp4
5-1 prototype和原型链查找.mp4
5-3 原型链的终点.mp4
7-10 选择题-就业班.pdf
7-11 选择题-就业班.pdf
7-12 编程练习-就业班.pdf
7-13 编程练习-就业班.pdf
5-4 继承.mp4
7-1 包装类.mp4
7-3 选择题-就业班.pdf
6-1 上升到面向对象-红绿灯小案例.mp4
7-4 选择题-就业班.pdf
7-14 Date(日期)对象(2).mp4
7-2 Math(数学)对象.mp4
7-5 编程练习-就业班.pdf
6-2 上升到面向对象-炫彩小球小案例.mp4
7-6 编程练习-就业班.pdf
7-7 编程练习-就业班.pdf
7-9 选择题-就业班.pdf
8-1 课程总结.mp4
7-8 Date(日期)对象(1).mp4
辅助材料
call和apply.pdf
对象的深浅克隆.pdf
prototype和原型链查找.pdf
对象的方法和遍历.pdf
课程简介.pdf
课程总结.pdf
面向对象案例.zip
-学习资料预览.pdf
构造函数和类.pdf
内置对象.pdf
上升到面向对象.pdf
认识对象.pdf
原型链的终点.pdf
上下文规则.pdf
认识上下文.pdf
在prototype上添加方法.pdf
├第9周 项目实战:仿穷游JS特效开发
第1节 正则表达式
1-1 课程简介.mp4
2-03 选择题-就业班.pdf
2-05 选择题-就业班.pdf
2-06 选择题-就业班.pdf
2-07 选择题-就业班.pdf
2-01 什么是正则表达式.mp4
2-08 选择题-就业班.pdf
2-02 正则表达式的创建.mp4
2-10 编程练习-就业班.pdf
2-11 编程练习-就业班.pdf
2-04 元字符.mp4
2-13 修饰符.mp4
2-15 编程练习-就业班.pdf
2-16 编程练习-就业班.pdf
2-17 编程练习-就业班.pdf
2-19 选择题-就业班.pdf
2-18 字符串的相关正则方法.mp4
2-20 选择题-就业班.pdf
2-21 编程练习-就业班.pdf
2-22 编程练习-就业班.pdf
2-09 方括号表示法.mp4
2-14 正则表达式的相关方法.mp4
3-1 课程总结.mp4
2-12 量词.mp4
2-23 正则表达式的应用.mp4
辅助材料
课程简介.pdf
课程总结.pdf
什么是正则表达式.pdf
正则表达式案例.zip
正则表达式的使用.pdf
正则表达式的应用.pdf
正则表达式和字符串.pdf
第2节 “仿穷游”首页动态项目
1-1 课程简介.mp4
2-1 动画效果实现机理.mp4
2-2 布局实现.mp4
2-5 函数节流和定时器.mp4
2-4 代码编写(2).mp4
3-1 课程总结.mp4
3-2 作业题-就业班.pdf
2-6 实现返回顶部动画.mp4
2-3 代码编写(1).mp4
5f6481e05a99acf5ab3dfdd7.zip
2-7 实现垂直菜单.mp4
辅助材料
动画效果实现机理.pdf
慕云游项目动态开发.zip
├阶段2:组件化与移动WebApp开发
├第10周 ES6基础入门
第1节 初识ES6
1-1 课程简介.mp4
3-10 自由编程-就业班.pdf
3-12 编程练习-就业班.pdf
3-2 选择题-就业班.pdf
2-1 ES6 简介.mp4
3-4 选择题-就业班.pdf
3-1 let 和 const 是什么.mp4
3-6 选择题-就业班.pdf
3-8 选择题-就业班.pdf
3-9 选择题-就业班.pdf
3-3 const.mp4
3-5 let、const 与 var 的区别-1.mp4
4-1 课程总结.mp4
3-11 let 和 const 的应用.mp4
3-7 let、const 与 var 的区别-2.mp4
辅助材料
let和const.pdf
初识ES6.pdf
ES6简介.pdf
课程总结.pdf
源码.zip
第2节 模板字符与箭头函数
1-1 课程简介.mp4
2-2 编程练习-就业班.pdf
2-4 选择题-就业班.pdf
2-5 编程练习-就业班.pdf
2-7 编程练习-就业班.pdf
3-10 选择题-就业班.pdf
2-1 模板字符串是什么.mp4
2-3 模板字符串的注意事项.mp4
3-12 编程练习-就业班.pdf
3-2 编程练习-就业班.pdf
3-4 选择题-就业班.pdf
3-1 箭头函数是什么.mp4
3-11 箭头函数的应用.mp4
3-6 选择题-就业班.pdf
3-8 选择题-就业班.pdf
3-3 箭头函数的注意事项.mp4
3-9 不适用箭头函数的场景.mp4
3-5 非箭头函数中的 this 指向.mp4
3-7 箭头函数中的 this 指向.mp4
4-1 课程总结.mp4
2-6 模板字符串的应用.mp4
辅助材料
箭头函数.pdf
课程简介.pdf
源码.zip
课程总结.pdf
模板字符串.pdf
第3节 解构赋值
1-1 课程简介.mp4
2-10 编程练习-就业班.pdf
2-3 选择题-就业班.pdf
2-1 解构赋值是什么.mp4
2-5 选择题-就业班.pdf
2-6 编程练习-就业班.pdf
2-2 数组解构赋值的原理.mp4
2-8 选择题-就业班.pdf
2-9 选择题-就业班.pdf
3-2 选择题-就业班.pdf
2-4 数组解构赋值的默认值.mp4
3-3 选择题-就业班.pdf
3-5 选择题-就业班.pdf
3-6 选择题-就业班.pdf
3-7 选择题-就业班.pdf
2-7 数组解构赋值的应用.mp4
3-9 选择题-就业班.pdf
3-1 对象解构赋值的原理.mp4
3-4 对象解构赋值的注意事项.mp4
3-8 对象解构赋值的应用.mp4
5-1 课程总结.mp4
4-1 其它数据类型的解构赋值.mp4
辅助材料
对象的解构赋值.pdf
课程简介.pdf
源码.zip
数组的解构赋值.pdf
课程总结.pdf
第4节 对象字面看的增强与函数参数默认值
1-1 课程简介.mp4
2-3 选择题-就业班.pdf
2-4 选择题-就业班.pdf
2-1 属性和方法的简洁表示法.mp4
3-3 选择题-就业班.pdf
2-2 方括号语法.mp4
3-5 编程练习-就业班.pdf
3-1 函数参数的默认值是什么.mp4
3-2 函数参数默认值的注意事项.mp4
3-4 函数参数默认值的应用.mp4
4-1 课程总结.mp4
辅助材料
对象自面量的增强.pdf
源码.zip
课程总结.pdf
函数参数的默认值.pdf
课程简介.pdf
├第11周 ES6语法扩展
第1节 剩余参数与展开运算符
1-1 课程简介.mp4
2-3 选择题-就业班.pdf
2-4 编程练习-就业班.pdf
2-6 选择题-就业班.pdf
2-7 编程练习-就业班.pdf
3-2 编程练习-就业班.pdf
2-1 剩余参数是什么.mp4
2-2 剩余参数的注意事项.mp4
3-4 选择题-就业班.pdf
3-1 数组展开运算符的基本用法.mp4
4-2 选择题-就业班.pdf
2-5 剩余参数的应用.mp4
3-3 区分剩余参数和展开运算符.mp4
4-5 编程练习-就业班.pdf
4-1 对象展开运算符的基本用法.mp4
3-5 数组展开运算符的应用.mp4
4-3 对象展开运算符的注意事项.mp4
5-1 课程总结.mp4
4-4 对象展开运算符的应用.mp4
辅助材料
对象的展开运算符.pdf
课程总结.pdf
剩余参数.pdf
数组的展开运算符.pdf
课程简介.pdf
源码.zip
第2节 Set和Map数据结构
1-1 课程简介.mp4
2-11 编程练习-就业班.pdf
2-2 选择题-就业班.pdf
2-4 选择题-就业班.pdf
2-5 编程练习-就业班.pdf
2-7 选择题-就业班.pdf
2-1 Set是什么.mp4
2-9 选择题-就业班.pdf
2-10 Set的应用.mp4
3-10 编程练习-就业班.pdf
2-6 Set构造函数的参数.mp4
2-3 Set实例的方法和属性.mp4
2-8 Set 的注意事项.mp4
3-3 选择题-就业班.pdf
3-4 选择题-就业班.pdf
3-7 编程练习-就业班.pdf
3-5 编程练习-就业班.pdf
3-1 Map是什么.mp4
3-2 Map 实例的属性和方法.mp4
3-9 Map的应用.mp4
3-6 Map 构造函数的参数.mp4
4-1 课程总结.mp4
3-8 Map 的注意事项.mp4
辅助材料
Set.pdf
课程简介.pdf
Map.pdf
课程总结.pdf
for…in方法.pdf
源码.zip
第3节 遍历器与for…of循环
1-1 课程简介.mp4
2-11 编程练习-就业班.pdf
2-1 Iterator 是什么.mp4
2-5 选择题-就业班.pdf
2-2 Iterator 解惑.mp4
2-6 编程练习-就业班.pdf
2-3 for…of 的用法-1.mp4
2-4 for…of的用法-2.mp4
2-10 使用了 Iterator 的场合.mp4
2-8 选择题-就业班.pdf
2-9 编程练习-就业班.pdf
3-1 课程总结.mp4
2-7 原生可遍历和非原生可遍历.mp4
辅助材料
课程简介.pdf
Iterator与for…of.pdf
源码.zip
课程总结.pdf
第4节 ES6的新增方法
2-2 选择题-就业班.pdf
2-3 选择题-就业班.pdf
2-4 编程练习-就业班.pdf
2-6 选择题-就业班.pdf
1-1 课程简介.mp4
2-7 编程练习-就业班.pdf
2-1 includes().mp4
2-9 编程练习-就业班.pdf
2-5 padStart()和padEnd().mp4
3-3 选择题-就业班.pdf
3-5 编程练习-就业班.pdf
3-1 includes().mp4
2-8 trimStart()和trimEnd().mp4
3-2 Array.from().mp4
4-2 选择题-就业班.pdf
3-4 find()和findIndex().mp4
4-4 编程练习-就业班.pdf
4-1 Object.assign().mp4
4-3 Object.keys()、Object.values()和Object.entries().mp4
5-1 课程总结.mp4
辅助材料
源码.zip
ES6的新增方法.pdf
map方法.pdf
课程总结.pdf
├第12周 ES6之Promise与Class类
第1节 Promise
1-1 课程简介.mp4
2-3 选择题-就业班.pdf
3-2 选择题-就业班.pdf
2-1 Promise 是什么.mp4
3-5 选择题-就业班.pdf
3-3 then()-2.mp4
2-2 Promise的基本用法.mp4
3-1 then().mp4
4-2 选择题-就业班.pdf
4-4 选择题-就业班.pdf
3-4 catch().mp4
3-6 finally().mp4
4-5 Promise.race() 和 Promise.allSettled().mp4
4-3 Promise.all().mp4
4-1 Promise.resolve() 和 Promise.reject().mp4
5-3 编程练习-就业班.pdf
5-1 Promise 的注意事项.mp4
5-2 Promise的应用.mp4
6-1 课程总结.mp4
辅助材料
Promise注意事项.pdf
课程简介.pdf
构造函数方法.pdf
初识Promise.pdf
课程总结.pdf
实例方法.pdf
源码.zip
第2节 Class类
2-2 选择题-就业班.pdf
1-1 课程简介.mp4
3-2 选择题-就业班.pdf
3-3 编程练习-就业班.pdf
2-3 Class 的两种定义形式.mp4
4-2 选择题-就业班.pdf
3-1 实例属性、静态方法和静态属性.mp4
4-4 选择题-就业班.pdf
4-5 选择题-就业班.pdf
2-1 Class 是什么.mp4
3-4 私有属性和方法.mp4
5-2 自由编程-就业班.pdf
4-1 extends.mp4
4-3 super.mp4
6-1 课程总结.mp4
5-1 Class的应用.mp4
辅助材料
extends和super.pdf
课程简介.pdf
Class的属性和方法.pdf
课程总结.pdf
源码.zip
初识Class.pdf
├第13周 ES6之Module模块与Babel编译
第1节 Module模块
1-1 课程简介.mp4
2-3 选择题-就业班.pdf
3-2 选择题-就业班.pdf
2-1 Module 是什么.mp4
3-4 选择题-就业班.pdf
3-5 自由编程-就业班.pdf
4-2 选择题-就业班.pdf
2-2 Module 的基本用法.mp4
3-1 export default 和对应的 import.mp4
4-4 自由编程-就业班.pdf
5f523595975fd23498aacea3.zip
4-3 Module的应用.mp4
5-1 课程总结.mp4
4-1 Module 的注意事项.mp4
3-3 export 和对应的 import.mp4
辅助材料
Module的导入与导出.pdf
Module的注意事项.pdf
初识Module.pdf
课程总结.pdf
课程简介.pdf
源码.zip
第2节 Babel与webpack
1-1 课程简介.mp4
2-1 Babel 是什么.mp4
2-2 Babel 的使用方式.mp4
2-4 使用 Babel 编译 ES6 代码.mp4
3-1 Webpack是什么.mp4
3-2 Webpack 初体验.mp4
2-3 使用 Babel 前的准备工作.mp4
4-1 entry和output.mp4
4-3 plugins-1.mp4
5-2 处理CSS文件-2.mp4
4-4 plugins-2.mp4
4-2 loader-1.mp4
5-1 处理CSS文件-1.mp4
5-3,5-4 使用file-loader处理CSS中的图片.mp4
5-6 使用file-loader处理JS中的图片.mp4
5f523ae613e2a5857ec520f3.zip
5-7 使用url-loader处理图片.mp4
5-8 使用webpack-dev-server搭建开发环境.mp4
5-5 使用html-withimg-loader处理HTML中的图片.mp4
6-2 作业题-就业班.pdf
6-1 课程总结.mp4
辅助材料
Babel.pdf
mode安装.pdf
Webpack.pdf
课程总结.pdf
课程简介.pdf
源码.zip
-学习资料预览.pdf
├第14-15周 HTTP 协议、存储、Ajax
第1节 前端数据交互与HTTP协议
2-3 选择题-就业班.pdf
1-1 课程简介.mp4
2-5 选择题-就业班.pdf
2-1 初识前后端通信.mp4
2-4 前后端的通信方式.mp4
3-10 选择题-就业班.pdf
3-2 选择题-就业班.pdf
2-2 前后端通信的过程与概念解释.mp4
3-4 选择题-就业班.pdf
3-6 选择题-就业班.pdf
3-1 初识 HTTP.mp4
3-8 选择题-就业班.pdf
3-7 GET 和 POST 方法的对比.mp4
3-3 HTTP 报文.mp4
3-9 HTTP 状态码.mp4
4-1 课程总结.mp4
3-5 HTTP 方法.mp4
辅助材料
课程简介.pdf
HTTP协议.pdf
课程总结.pdf
源码.zip
前后端通信.pdf
第2节 本地存储
1-1 课程简介.mp4
2-1 初识 Cookie.mp4
2-12 自由编程-就业班.pdf
2-2 选择题-就业班.pdf
2-4 选择题-就业班.pdf
2-13 Cookie 的注意事项.mp4
2-11 Cookie的封装-2.mp4
2-6 选择题-就业班.pdf
2-3 Cookie 的基本用法.mp4
2-7 选择题-就业班.pdf
2-5 Cookie 的属性-1.mp4
3-2 选择题-就业班.pdf
2-9 Cookie的属性-3.mp4
2-8 Cookie的属性-2.mp4
3-1 初识 localStorage-1.mp4
3-4 自由编程-就业班.pdf
3-3 初识localStorage-2.mp4
2-10 Cookie 的封装-1.mp4
4-1 课程总结.mp4
3-5 localStorage 的注意事项.mp4
辅助材料
localStorage.pdf
Cookie.pdf
课程简介.pdf
课程总结.pdf
源码.zip
第3节 Ajax&Fetch与跨域请求
1-1 课程简介.mp4
2-3 选择题-就业班.pdf
2-4 选择题-就业班.pdf
2-6 选择题-就业班.pdf
2-1 初识 Ajax.mp4
2-9 编程练习-就业班.pdf
2-2 Ajax 的基本用法-1.mp4
2-5 Ajax的基本用法-2.mp4
3-3 选择题-就业班.pdf
2-8 POST 请求.mp4
3-5 选择题-就业班.pdf
2-7 GET 请求.mp4
3-1 初识 JSON.mp4
4-2 选择题-就业班.pdf
3-2 JSON 的 3 种形式.mp4
4-4 JSONP.mp4
4-1 初识跨域.mp4
4-3 CORS 跨域资源共享.mp4
5-2 选择题-就业班.pdf
3-4 JSON 的常用方法.mp4
5-4 选择题-就业班.pdf
5f8814e8b7614c4a13fed503.rar
5fa3a34ccce4d37649827dd4.zip
5-3 XHR 的方法.mp4
5-1 XHR 的属性.mp4
6-1 FormData.mp4
6-2 封装Ajax-1.mp4
6-3 封装Ajax-2.mp4
6-4 封装Ajax-3.mp4
6-5 封装Ajax-4.mp4
6-8 自由编程-就业班.pdf
6-6 封装Ajax-5.mp4
7-3 自由编程-就业班.pdf
6-7 使用Promise改造封装好的Ajax.mp4
7-4 多个Ajax请求的并发执行.mp4
7-1 搜索提示.mp4
5-5 XHR 的事件.mp4
7-2 二级菜单.mp4
8-1 axios.mp4
8-2 Fetch.mp4
9-1 课程总结.mp4
辅助材料
JSON.pdf
Ajax进阶.pdf
MAMP的安装与使用.pdf
Ajax扩展.pdf
phpStudy的安装与使用.pdf
XHR对象.pdf
初识Ajax.pdf
课程简介.pdf
跨域.pdf
课程总结.pdf
源码.zip
PhpStudy2018安装包.rar
MAMP安装包.zip
├第16周 项目实战:仿穷游组件化开发
“仿穷游”首页组件化开发
2-1 模板引擎–art-template.mp4
1-1 课程简介.mp4
2-2 art-template的语法-1.mp4
3-2 搭建开发环境.mp4
3-1 项目的目录结构.mp4
2-4 在Webpack中使用art-template.mp4
2-3 art-template的语法-2.mp4
4-1 在当前环境启动原有项目.mp4
5-1 原理分析.mp4
4-5 拆分余下的CSS文件.mp4
4-2 顶部组件.mp4
4-3 幻灯片组件.mp4
4-4 机酒自由行组件.mp4
5-2 结构和样式.mp4
5-6 使用Ajax获取数据-1.mp4
5-4 功能实现-2.mp4
5-3 功能实现-1.mp4
5f5879cfe52f53332bf0cda9.rar
5-5 功能实现-3.mp4
7-2 作业题-就业班.pdf
5-8 加载中组件.mp4
7-1 课程总结.mp4
6-1 机酒自由行.mp4
5-7 使用Ajax获取数据-2.mp4
辅助材料
课程简介.pdf
课程总结.pdf
源码.zip
├第17周 移动基础
第1节 移动Web开发入门
1-1 课程介绍.mp4
2-3 选择题-就业班.pdf
2-4 选择题-就业班.pdf
1-2 为什么进行web开发.mp4
2-7 选择题-就业班.pdf
2-1 物理像素.mp4
3-02 选择题-就业班.pdf
2-5 视口-viewport(1).mp4
2-2 CSS像素.mp4
2-6 视口-viewport(2).mp4
3-05 选择题-就业班.pdf
3-01 box-sizing.mp4
3-07 选择题-就业班.pdf
3-09 选择题-就业班.pdf
3-10 编程练习-就业班.pdf
3-03 图标字体.mp4
3-11 编程练习-就业班.pdf
3-04 flex布局-入门.mp4
3-13 选择题-就业班.pdf
3-15 选择题-就业班.pdf
3-14 选择题-就业班.pdf
3-17 编程练习-就业班.pdf
3-06 移动webapp入门(1).mp4
3-08 移动webapp入门(2).mp4
3-20 选择题-就业班.pdf
3-18 媒体查询-基础(1).mp4
3-22 选择题-就业班.pdf
3-23 编程练习-就业班.pdf
3-24 编程练习-就业班.pdf
3-12 flex布局-项目的属性.mp4
3-16 flex布局-实例.mp4
3-19 媒体查询-基础(2).mp4
3-26 选择题-就业班.pdf
3-27 选择题-就业班.pdf
3-28 选择题-就业班.pdf
3-21 媒体查询-策略.mp4
4-1 课程总结.mp4
3-25 移动端常用单位.mp4
辅助材料
移动Web开发入门(ppt).pdf
移动web开发入门(源码).rar
第2节 响应式布局
1-2 选择题-就业班.pdf
1-3 选择题-就业班.pdf
1-4 结构、内容和布局的概念.mp4
2-2 选择题-就业班.pdf
2-1 什么是栅格系统.mp4
2-4 自由编程-就业班.pdf
1-1 什么是响应式布局.mp4
2-3 试用栅格系统完成响应式布局.mp4
3-2 实现栅格系统–扩展部分.mp4
4-4 自由编程-就业班.pdf
4-2 头部header区–css.mp4
3-1 实现栅格系统–基础部分.mp4
4-6 商品展示、返回顶部、帮助、底部footer区.mp4
4-3 导航区.mp4
4-5 幻灯片区.mp4
4-1 头部header区–html.mp4
5-3 自由编程-就业班.pdf
5c7de8ef005193f8e7af76f2.zip
5c7de702a2cb06441d713ab6.zip
5c7de9b33d577f0fc89a7217.zip
5-1 实现栅格系统–基础部分.mp4
5-2 实现栅格系统–扩展部分.mp4
5-4 使用栅格系统改写响应式页面.mp4
6-1 课程总结.mp4
辅助材料
响应式布局(ppt).pdf
响应式布局(源码).rar
响应式布局总结导图.zip
第3节 移动端屏幕适配
1-2 选择题-就业班.pdf
2-2 选择题-就业班.pdf
1-1 移动端屏幕适配介绍.mp4
2-3 简单适配实现.mp4
2-1 简单的适配原理.mp4
2-4 简单适配应用.mp4
3-1 通用适配原理.mp4
3-3,3-4 通用适配应用–头部header.mp4
3-2 通用适配实现.mp4
3-5 通用适配应用–幻灯片和导航.mp4
3-8 通用适配应用–标签栏tabbar.mp4
3-6,3-7 通用适配应用–商品推荐.mp4
4-1 课程总结.mp4
辅助材料
移动端屏幕适配.pdf
移动端屏幕适配(源码).zip
├第18周 移动进阶之高效开发
第1节 移动端事件
1-2 选择题-就业班.pdf
1-1 移动端事件介绍.mp4
2-1,2-2 touch事件基础.mp4
2-3,2-4 touch事件的event对象.mp4
3-1 其他触摸事件介绍.mp4
3-2 hammer.js.mp4
4-1 幻灯片的原理.mp4
2-6 单指拖拽–拖拽.mp4
2-5 单指拖拽–运动.mp4
4-2 幻灯片的HTML和CSS.mp4
4-3 幻灯片的核心部分(上).mp4
4-5 幻灯-片的核心部分-2(上).mp4
4-6 幻灯-片的核心部分-2(下).mp4
4-4 幻灯片的核心部分(下).mp4
4-9 幻灯片的操控部分–滑动切换.mp4
4-7 幻灯片的操控部分–左右拖动(上).mp4
5-1 课程总结.mp4
4-8 幻灯片的操控部分–左右拖动(下).mp4
辅助材料
移动端事件(PPT).pdf
移动事件(源码).rar
第2节 移动常见问题
1-1 课程介绍.mp4
2-12 自由编程-就业班.pdf
2-1 H5标签-浏览器兼容性.mp4
2-11 水平居中和垂直居中(3).mp4
2-10 水平居中和垂直居中(2).mp4
2-3 CSS3-浏览器兼容性.mp4
2-2 JS-浏览器兼容性.mp4
2-7 编程练习-就业班.pdf
2-8 编程练习-就业班.pdf
2-5 click300ms延迟.mp4
3-1 课程总结.mp4
2-6 单行和多行文字溢出省略.mp4
2-4 移动端动画.mp4
2-9 水平居中和垂直居中.mp4
辅助材料
移动常见问题(源码).rar
移动端常见问题(ppt).pdf
第3节 移动性能优化
1-1 课程介绍.mp4
2-2 HTML中的CSS和JavaScript(2).mp4
2-1 HTML中的CSS和JavaScript(1).mp4
3-1 CSS选择器优化.mp4
3-2 CSS属性和其他优化.mp4
2-3 图片和其他优化.mp4
4-1 DOM操作优化(1).mp4
4-3 DOM操作优化(2).mp4
4-2 DOM操作优化(2).mp4
4-6 资源按需加载和预加载(1).mp4
4-4 事件优化(1).mp4
4-7 资源按需加载和预加载(2).mp4
4-5 事件优化(2).mp4
4-8 资源按需加载和预加载(2).mp4
辅助材料
移动端性能优化(ppt).pdf
移动性能优化(源码).rar
├第19周 项目实战:仿穷游移动webapp开发
第1节 Swipe人快速切换插件
2-2 编程练习-就业班.pdf
2-4 编程练习-就业班.pdf
2-6 编程练习-就业班.pdf
1-1 swiper介绍.mp4
2-3 progress插件使用.mp4
2-5 3D-flow插件使用.mp4
2-1 swiper垂直滚动基本示例.mp4
2-7 scrolle-bar插件使用.mp4
3-1 tab切换综合示例.mp4
辅助材料
课程代码.rar
第2节 “仿穷游”商城webapp
1-1 课程简介.mp4
2-1 项目的目录结构.mp4
2-2 搭建开发环境.mp4
3-1 首页的结构和样式-1.mp4
3-11 标签栏组件.mp4
3-10 商品组件.mp4
3-13 代码优化.mp4
3-4 头部组件的功能-1.mp4
3-3 头部组件的结构和样式.mp4
3-2 首页的结构和样式-2.mp4
3-12 返回顶部组件.mp4
3-5 头部组件的功能-2.mp4
3-7 幻灯片组件.mp4
3-8 使用Ajax获取幻灯片组件的数据.mp4
3-9 导航组件.mp4
3-6 搜索框组件.mp4
4-2 头部组件.mp4
4-1 目的地页的结构和样式.mp4
4-4 选项卡组件.mp4
4-3 主体组件.mp4
4-5 内容组件.mp4
5-2 作业题-就业班.pdf
5f9faaacd8c40d2a1d35b255.zip
5-1 课程总结.mp4
4-7 返回顶部.mp4
4-6 终止请求和使用本地存储.mp4
辅助材料
课程简介.pdf
课程总结.pdf
源码.zip
├阶段3:小程序与主流框架开发
├第20周 小程序基础与小程序实战
第1节 小程序基础API
1-1 小程序的前世今生.mp4
1-3 创建小程序工程.mp4
2-02 选择题-就业班.pdf
1-2 小程序的开发环境准备和基础信息配置.mp4
2-05 选择题-就业班.pdf
1-4 小程序开发协作及上线流程.mp4
2-07 选择题-就业班.pdf
2-08 选择题-就业班.pdf
2-01 小程序文件类型及代码结构介绍.mp4
2-03 全局配置文件的使用.mp4
2-04 使用全局配置制作菜单栏.mp4
2-06 页面级别的配置项.mp4
2-09 全局逻辑中的生命周期函数.mp4
2-13 选择题-就业班.pdf
2-10 全局方法及数据的定义及调用方式.mp4
2-12 页面逻辑层数据的定义及与页面的串联.mp4
2-11 页面级别的生命周期函数.mp4
2-19 选择题-就业班.pdf
2-14 逻辑层中的 API.mp4
2-16,2-17 视图层循环展示内容.mp4
2-15 视图层的数据绑定.mp4
2-18 视图层代码的拆分.mp4
2-20 组件&样式与项目清理.mp4
辅助材料
课程源码.zip
第2节 小程序实战开发
1-1,1-2 首页搜索框开发.mp4
1-3 导航和轮播的开发.mp4
1-4 实战推荐样式开发.mp4
1-5 使用数据循环展示内容项.mp4
2-1 代码精简及切换效果实现.mp4
1-6 远程数据获取及搜索功能实现.mp4
3-3 完成页面布局样式编写.mp4
2-2 列表渲染与视图拆离.mp4
3-1 页面跳转及热门推荐tab布局开发.mp4
3-4 层级Tab 切换逻辑开发.mp4
3-2 热门排行基础布局.mp4
4-2 作业题-就业班.pdf
4-1 小程序发布流程复习.mp4
5fa1359be2b6c381a39d5f60.zip
3-7 接口数据渲染及重点知识点收尾(2).mp4
3-5 列表灵活切换功能的实现.mp4
3-6 接口数据渲染及重点知识点收尾(1).mp4
辅助材料
课程源码.zip
├第21周 React.js基础语法与新闻网站
第1节 React开发环境准备
1-1 React 简介.mp4
2-2 工程目录简介(1).mp4
2-5 工程目录简介(4).mp4
2-4 工程目录简介(3).mp4
2-3 工程目录简介(2).mp4
2-1 React开发环境准备.mp4
辅助材料
React(ppt).pdf
源码.zip
第2节 React基础入门
1-1 react中的组件(1).mp4
1-3 选择题-就业班.pdf
1-4 自由编程-就业班.pdf
2-10 自由编程-就业班.pdf
1-2 react中的组件(2).mp4
2-2 选择题-就业班.pdf
2-1 什么是 JSX 语法.mp4
2-12 更多 JSX 语法细节(2).mp4
2-3 使用 React 编写 TodoList 功能.mp4
2-11 更多 JSX 语法细节(1).mp4
2-5 React 中数据驱动的设计思想和事件绑定(1).mp4
2-6 React 中数据驱动的设计思想和事件绑定(2).mp4
2-8 实现 TodoList 新增删除功能(1).mp4
2-9 实现 TodoList 新增删除功能(2).mp4
辅助材料
源码.zip
第3节 React组件与生命周期
1-3 选择题-就业班.pdf
1-1 组件拆分与组件之间的传值(1).mp4
1-4 自由编程-就业班.pdf
2-12 选择题-就业班.pdf
2-10 React 中的生命周期函数(3).mp4
2-11 React 中的生命周期函数(4).mp4
2-13 生命周期函数使用实例.mp4
2-3 自由编程-就业班.pdf
2-1 React 的核心特性总结.mp4
2-4 自由编程-就业班.pdf
2-5 自由编程-就业班.pdf
2-7 自由编程-就业班.pdf
1-2 组件拆分与组件之间的传值(2).mp4
2-2 Props, State 与 render 函数.mp4
2-9 React 中的生命周期函数(2).mp4
2-6 React 中 ref 的使用.mp4
2-8 React 中的生命周期函数(1).mp4
4-1 React 中的前端路由(1).mp4
3-1 Ant Design 组件库的使用.mp4
4-2 React 中的前端路由(2).mp4
辅助材料
源码.zip
第4节 项目:React实现新闻网站
1-1 项目简介.mp4
2-1 Header组件拆分及样式布局(1).mp4
3-1 列表页面的制作及路由配置(1).mp4
2-2 Header组件拆分及样式布局(2).mp4
2-3 Ajax获取Header组件数据.mp4
3-2 列表页面的制作及路由配置(2).mp4
4-1 使用动态路由获取不同列表内容(1).mp4
4-2 使用动态路由获取不同列表内容(2).mp4
4-3 使用动态路由获取不同列表内容(3).mp4
5-1 详情页面的制作(1).mp4
6-3 登录功能实现(3).mp4
5-2 详情页面的制作(2).mp4
6-1 登录功能实现(1).mp4
6-2 登录功能实现(2).mp4
7-1 根据登录权限决定页面展示(1).mp4
7-4 作业题-就业班.pdf
7-3 根据登录权限决定页面展示(3).mp4
7-2 根据登录权限决定页面展示(2).mp4
辅助材料
源码.zip
├第22-23周 Sass基础与Vue.js基础语法
第1节 Sass基础
1-1 Saas 环境搭建与基本语法.mp4
1-2 变量入门.mp4
1-3 嵌套,代码拆分及引入.mp4
1-4 Mixin混入的使用.mp4
1-5 媒体查询与Mixin 的配合使用.mp4
第2节 Vue基础入门(一)
1-1 初学编写 HelloWorld 和 Counter.mp4
1-2 编写字符串反转和内容隐藏小功能.mp4
1-3 编写TodoList 小功能,了解循环和双向绑定.mp4
2-1 Vue 中应用和组件的基础概念.mp4
2-2 理解 Vue 中的生命周期函数(1.mp4
2-10 列表循环渲染(1.mp4
2-3 理解 Vue 中的生命周期函数(2.mp4
1-4 组件概念初探,对 TodoList 进行组件代码拆分.mp4
2-4 常用模版语法讲解(1.mp4
2-5 常用模版语法讲解(2)【.mp4
2-7 数据,方法,计算属性和侦听器(2.mp4
2-8 样式绑定语法.mp4
2-9 条件渲染.mp4
2-6 数据,方法,计算属性和侦听器(1).mp4
辅助材料
源码.zip
第3节 Vue基础入门(二)
1-11 作用域插槽.mp4
1-10 使用插槽和具名插槽解决组件内容传递问题(2).mp4
1-1 组件的定义及复用性,局部组件和全局组件(1).mp4
1-13 基础语法知识点查缺补漏.mp4
1-12 动态组件和异步组件.mp4
1-2 组件的定义及复用性,局部组件和全局组件(2).mp4
1-4 单项数据流的理解.mp4
1-3 组件间传值及传值校验.mp4
1-5 Non-Props 属性是什么.mp4
1-7 父子组件间如何通过事件进行通信(2).mp4
1-6 父子组件间如何通过事件进行通信(1).mp4
1-8 组件间双向绑定高级内容(选学).mp4
2-3 使用 transition 标签实现单元素组件的过渡和动画效果(2).mp4
1-9 使用插槽和具名插槽解决组件内容传递问题(1).mp4
2-2 使用 transition 标签实现单元素组件的过渡和动画效果(1).mp4
2-1 使用 Vue 实现基础的 CSS 过渡与动画效果.mp4
2-4 使用 transition 标签实现单元素组件的过渡和动画效果(3).mp4
2-6 状态动画.mp4
2-5 组件和元素切换动画的实现.mp4
辅助材料
源码.zip

 

暂无优惠 永久SVIP免费

已有0人支付

RIPRO主题是一个优秀的主题,极致后台体验,无插件,集成会员系统
素材库创收网 » 前端开发工程师,从小白到就业价值3999元

提供最优质的资源集合

立即查看 了解详情